GEFSSE_prec_meanprecacc_030.txt.gz
Total_Precipitation_Accumulation
0.01 0.00 0.00 0.01 0.01 0.00 0.00 0.00 0.01 0.03 0.04 0.06 0.08 0.08 0.08 0.07 0.06 0.06 0.06 0.06 0.06 0.08 0.11 0.15 0.18 0.21 0.25 0.25 0.18 0.10 0.08 0.07 0.05 0.03 0.02 0.02 0.02 0.02 0.03 0.03 0.01 0.01 0.00
0.01 0.00 0.01 0.01 0.02 0.01 0.00 0.01 0.02 0.03 0.05 0.05 0.05 0.05 0.06 0.05 0.05 0.06 0.07 0.08 0.09 0.11 0.11 0.13 0.17 0.20 0.21 0.19 0.14 0.09 0.06 0.04 0.03 0.04 0.06 0.10 0.15 0.12 0.10 0.08 0.04 0.03 0.00
0.01 0.00 0.01 0.01 0.02 0.02 0.01 0.01 0.02 0.04 0.06 0.07 0.06 0.05 0.04 0.03 0.03 0.04 0.06 0.09 0.14 0.16 0.14 0.14 0.14 0.16 0.16 0.12 0.08 0.05 0.02 0.02 0.03 0.06 0.14 0.22 0.31 0.27 0.23 0.20 0.20 0.12 0.03
0.01 0.00 0.00 0.01 0.02 0.04 0.03 0.03 0.03 0.04 0.08 0.11 0.12 0.10 0.07 0.03 0.03 0.05 0.07 0.09 0.13 0.15 0.13 0.11 0.10 0.10 0.08 0.05 0.04 0.02 0.01 0.01 0.02 0.07 0.12 0.18 0.26 0.27 0.23 0.25 0.32 0.30 0.21
0.02 0.00 0.00 0.01 0.02 0.05 0.06 0.06 0.05 0.06 0.10 0.14 0.17 0.17 0.11 0.05 0.04 0.07 0.10 0.11 0.12 0.15 0.17 0.14 0.09 0.06 0.04 0.03 0.03 0.01 0.01 0.01 0.03 0.11 0.22 0.30 0.36 0.37 0.28 0.25 0.31 0.36 0.35
0.01 0.00 0.00 0.01 0.02 0.05 0.07 0.08 0.08 0.09 0.12 0.17 0.20 0.19 0.12 0.06 0.05 0.08 0.12 0.15 0.17 0.20 0.25 0.21 0.20 0.13 0.08 0.05 0.03 0.02 0.02 0.03 0.07 0.22 0.30 0.33 0.35 0.32 0.23 0.19 0.22 0.33 0.35
0.01 0.00 0.00 0.01 0.03 0.06 0.08 0.07 0.07 0.10 0.12 0.17 0.20 0.16 0.10 0.06 0.04 0.07 0.14 0.17 0.20 0.24 0.24 0.21 0.19 0.14 0.12 0.10 0.08 0.09 0.10 0.13 0.17 0.27 0.29 0.27 0.24 0.17 0.14 0.12 0.12 0.13 0.18
0.01 0.00 0.00 0.01 0.03 0.10 0.15 0.09 0.05 0.06 0.09 0.14 0.18 0.15 0.10 0.07 0.09 0.13 0.15 0.18 0.21 0.19 0.16 0.17 0.16 0.13 0.15 0.17 0.17 0.18 0.18 0.20 0.18 0.19 0.17 0.14 0.12 0.09 0.11 0.13 0.09 0.06 0.07
0.06 0.05 0.02 0.02 0.02 0.05 0.06 0.03 0.02 0.03 0.06 0.11 0.16 0.20 0.16 0.13 0.20 0.23 0.21 0.21 0.25 0.20 0.16 0.17 0.18 0.15 0.19 0.23 0.19 0.15 0.14 0.12 0.08 0.06 0.05 0.04 0.04 0.03 0.04 0.05 0.05 0.04 0.03
0.29 0.38 0.16 0.09 0.04 0.02 0.01 0.01 0.01 0.01 0.02 0.05 0.08 0.12 0.13 0.15 0.19 0.20 0.17 0.16 0.19 0.14 0.10 0.10 0.12 0.12 0.10 0.08 0.05 0.03 0.02 0.02 0.01 0.00 0.00 0.01 0.01 0.00 0.00 0.01 0.01 0.03 0.02
0.52 0.71 0.49 0.18 0.04 0.01 0.01 0.00 0.00 0.00 0.00 0.01 0.02 0.04 0.08 0.15 0.16 0.15 0.10 0.09 0.07 0.04 0.02 0.02 0.02 0.01 0.01 0.01 0.00 0.00 0.00 0.00 0.00 0.00 0.00 0.00 0.00 0.00 0.00 0.00 0.00 0.00 0.01
0.63 0.60 0.46 0.11 0.02 0.01 0.00 0.01 0.01 0.01 0.01 0.02 0.02 0.04 0.09 0.12 0.13 0.09 0.04 0.03 0.01 0.00 0.00 0.00 0.00 0.00 0.00 0.00 0.00 0.00 0.00 0.00 0.00 0.00 0.00 0.00 0.00 0.00 0.00 0.00 0.00 0.00 0.00
0.56 0.31 0.16 0.10 0.06 0.03 0.01 0.01 0.01 0.01 0.01 0.01 0.02 0.03 0.06 0.06 0.04 0.02 0.00 0.00 0.00 0.00 0.00 0.00 0.00 0.00 0.00 0.00 0.00 0.00 0.00 0.00 0.00 0.00 0.00 0.00 0.00 0.00 0.00 0.00 0.00 0.00 0.00
0.30 0.22 0.12 0.10 0.06 0.04 0.02 0.01 0.01 0.01 0.01 0.01 0.01 0.01 0.03 0.04 0.02 0.01 0.01 0.00 0.00 0.00 0.00 0.00 0.00 0.00 0.00 0.00 0.00 0.00 0.00 0.00 0.00 0.00 0.00 0.00 0.00 0.00 0.00 0.00 0.00 0.01 0.00
0.27 0.27 0.14 0.10 0.07 0.04 0.02 0.01 0.01 0.01 0.01 0.00 0.00 0.00 0.01 0.01 0.01 0.01 0.01 0.01 0.00 0.00 0.00 0.00 0.00 0.00 0.00 0.00 0.00 0.00 0.00 0.00 0.00 0.00 0.00 0.00 0.00 0.00 0.00 0.00 0.01 0.01 0.01
0.45 0.43 0.19 0.08 0.03 0.02 0.01 0.00 0.00 0.01 0.02 0.02 0.02 0.02 0.01 0.02 0.02 0.02 0.01 0.02 0.01 0.01 0.01 0.00 0.00 0.00 0.00 0.00 0.00 0.00 0.00 0.00 0.00 0.00 0.00 0.00 0.00 0.00 0.01 0.01 0.01 0.01 0.01
0.60 0.57 0.24 0.07 0.02 0.01 0.01 0.00 0.01 0.01 0.03 0.04 0.05 0.04 0.02 0.02 0.01 0.01 0.01 0.01 0.01 0.00 0.00 0.00 0.00 0.00 0.00 0.00 0.00 0.00 0.01 0.01 0.01 0.01 0.01 0.01 0.02 0.02 0.02 0.02 0.02 0.03 0.02
0.90 0.90 0.38 0.08 0.02 0.01 0.01 0.01 0.01 0.02 0.02 0.03 0.03 0.02 0.01 0.01 0.00 0.00 0.00 0.00 0.00 0.01 0.01 0.01 0.01 0.01 0.02 0.02 0.02 0.03 0.03 0.04 0.04 0.04 0.04 0.05 0.05 0.05 0.04 0.04 0.04 0.03 0.03
1.35 1.18 0.47 0.13 0.05 0.03 0.02 0.01 0.01 0.01 0.01 0.01 0.01 0.01 0.01 0.00 0.00 0.00 0.00 0.01 0.01 0.02 0.03 0.05 0.07 0.06 0.06 0.06 0.06 0.06 0.05 0.05 0.06 0.06 0.06 0.06 0.06 0.05 0.05 0.04 0.03 0.03 0.03
1.77 1.33 0.60 0.33 0.21 0.10 0.05 0.03 0.03 0.02 0.02 0.02 0.02 0.01 0.01 0.01 0.01 0.02 0.02 0.03 0.03 0.04 0.07 0.09 0.10 0.08 0.07 0.05 0.04 0.03 0.04 0.04 0.05 0.05 0.04 0.04 0.03 0.03 0.02 0.02 0.02 0.02 0.03
0.81 0.74 0.60 0.47 0.33 0.24 0.18 0.12 0.07 0.05 0.04 0.03 0.03 0.04 0.05 0.05 0.06 0.07 0.06 0.06 0.06 0.06 0.06 0.05 0.05 0.05 0.04 0.03 0.02 0.02 0.01 0.01 0.02 0.01 0.01 0.01 0.01 0.01 0.01 0.01 0.01 0.01 0.01
0.45 0.56 0.57 0.50 0.39 0.30 0.24 0.16 0.13 0.10 0.08 0.09 0.11 0.14 0.12 0.12 0.10 0.09 0.08 0.05 0.05 0.04 0.03 0.03 0.03 0.02 0.01 0.01 0.01 0.01 0.00 0.00 0.00 0.00 0.00 0.00 0.00 0.00 0.00 0.00 0.00 0.00 0.00
0.33 0.48 0.52 0.43 0.34 0.27 0.23 0.20 0.19 0.16 0.15 0.17 0.20 0.21 0.17 0.15 0.12 0.09 0.06 0.03 0.02 0.01 0.01 0.01 0.01 0.01 0.01 0.01 0.01 0.01 0.01 0.01 0.00 0.00 0.00 0.00 0.00 0.00 0.00 0.00 0.00 0.00 0.00
0.32 0.39 0.40 0.32 0.24 0.21 0.19 0.18 0.18 0.19 0.20 0.20 0.15 0.15 0.12 0.07 0.05 0.03 0.02 0.01 0.01 0.00 0.00 0.00 0.01 0.01 0.01 0.00 0.00 0.01 0.01 0.01 0.02 0.01 0.00 0.00 0.00 0.00 0.00 0.00 0.00 0.00 0.00
0.26 0.28 0.27 0.22 0.19 0.15 0.13 0.12 0.14 0.13 0.12 0.07 0.04 0.03 0.02 0.01 0.01 0.00 0.00 0.01 0.00 0.00 0.00 0.00 0.00 0.00 0.00 0.00 0.00 0.01 0.01 0.01 0.02 0.04 0.02 0.01 0.00 0.00 0.00 0.00 0.00 0.00 0.00
0.15 0.16 0.15 0.14 0.13 0.11 0.09 0.08 0.07 0.04 0.02 0.01 0.00 0.00 0.00 0.00 0.00 0.00 0.00 0.00 0.00 0.00 0.00 0.00 0.00 0.01 0.01 0.01 0.02 0.02 0.02 0.03 0.03 0.04 0.05 0.03 0.01 0.00 0.00 0.00 0.00 0.00 0.01

GEFSSE_prec_meanprecacc_036.txt.gz
Total_Precipitation_Accumulation
0.01 0.00 0.00 0.01 0.01 0.00 0.00 0.01 0.02 0.05 0.07 0.09 0.11 0.13 0.13 0.10 0.08 0.08 0.07 0.07 0.07 0.09 0.12 0.17 0.20 0.23 0.26 0.26 0.18 0.10 0.08 0.07 0.05 0.03 0.02 0.02 0.02 0.02 0.03 0.03 0.02 0.03 0.01
0.01 0.00 0.01 0.01 0.02 0.01 0.00 0.01 0.02 0.04 0.06 0.06 0.07 0.07 0.08 0.08 0.07 0.07 0.08 0.09 0.10 0.12 0.12 0.14 0.18 0.22 0.22 0.19 0.14 0.09 0.06 0.04 0.03 0.04 0.06 0.11 0.16 0.12 0.10 0.09 0.05 0.06 0.01
0.01 0.00 0.01 0.01 0.02 0.02 0.02 0.02 0.02 0.04 0.07 0.08 0.07 0.06 0.05 0.04 0.04 0.05 0.07 0.10 0.14 0.16 0.15 0.14 0.15 0.16 0.16 0.13 0.08 0.05 0.02 0.02 0.03 0.06 0.15 0.27 0.36 0.27 0.23 0.21 0.20 0.12 0.03
0.01 0.00 0.00 0.01 0.02 0.04 0.03 0.04 0.03 0.05 0.08 0.12 0.12 0.11 0.07 0.04 0.04 0.06 0.07 0.10 0.13 0.15 0.13 0.11 0.10 0.10 0.08 0.05 0.04 0.02 0.01 0.01 0.02 0.07 0.14 0.21 0.32 0.29 0.23 0.25 0.32 0.30 0.21
0.02 0.01 0.00 0.01 0.02 0.05 0.06 0.06 0.06 0.07 0.11 0.15 0.17 0.17 0.12 0.06 0.04 0.07 0.10 0.11 0.12 0.15 0.17 0.14 0.09 0.06 0.04 0.03 0.03 0.01 0.01 0.01 0.03 0.12 0.25 0.35 0.41 0.39 0.28 0.25 0.31 0.37 0.36
0.01 0.00 0.00 0.01 0.02 0.05 0.08 0.08 0.09 0.10 0.13 0.17 0.21 0.20 0.13 0.06 0.05 0.08 0.12 0.15 0.17 0.20 0.25 0.22 0.20 0.13 0.08 0.05 0.03 0.02 0.02 0.03 0.08 0.24 0.34 0.42 0.43 0.37 0.24 0.20 0.23 0.33 0.36
0.01 0.00 0.00 0.02 0.03 0.06 0.08 0.07 0.08 0.11 0.13 0.18 0.21 0.17 0.11 0.06 0.04 0.07 0.14 0.17 0.21 0.24 0.24 0.21 0.19 0.14 0.12 0.10 0.08 0.09 0.10 0.13 0.17 0.29 0.31 0.32 0.31 0.22 0.16 0.13 0.13 0.15 0.20
0.01 0.01 0.00 0.01 0.03 0.10 0.15 0.10 0.06 0.08 0.10 0.15 0.19 0.16 0.10 0.08 0.09 0.13 0.15 0.18 0.21 0.19 0.16 0.17 0.16 0.13 0.15 0.17 0.17 0.18 0.18 0.20 0.19 0.20 0.19 0.19 0.19 0.11 0.12 0.14 0.09 0.07 0.08
0.06 0.05 0.02 0.02 0.02 0.05 0.06 0.05 0.04 0.04 0.07 0.12 0.17 0.20 0.16 0.13 0.20 0.24 0.21 0.21 0.25 0.20 0.16 0.17 0.18 0.15 0.19 0.23 0.19 0.16 0.14 0.12 0.08 0.06 0.06 0.06 0.06 0.04 0.04 0.05 0.05 0.04 0.03
0.29 0.38 0.16 0.09 0.04 0.02 0.02 0.01 0.01 0.01 0.02 0.05 0.08 0.12 0.13 0.15 0.19 0.21 0.17 0.16 0.19 0.14 0.10 0.10 0.12 0.12 0.10 0.08 0.05 0.03 0.02 0.02 0.01 0.00 0.01 0.02 0.01 0.01 0.00 0.01 0.01 0.03 0.02
0.52 0.71 0.49 0.18 0.04 0.01 0.02 0.01 0.00 0.00 0.00 0.01 0.02 0.04 0.09 0.18 0.21 0.19 0.12 0.09 0.07 0.04 0.02 0.02 0.02 0.01 0.01 0.01 0.00 0.00 0.00 0.00 0.00 0.00 0.00 0.01 0.01 0.00 0.00 0.00 0.00 0.00 0.01
0.63 0.60 0.46 0.11 0.03 0.01 0.01 0.01 0.02 0.01 0.01 0.03 0.04 0.04 0.11 0.18 0.20 0.13 0.06 0.03 0.01 0.00 0.00 0.00 0.00 0.00 0.00 0.00 0.00 0.00 0.00 0.00 0.00 0.00 0.00 0.00 0.00 0.00 0.00 0.00 0.00 0.00 0.00
0.56 0.31 0.16 0.10 0.06 0.03 0.01 0.01 0.02 0.02 0.02 0.02 0.03 0.04 0.08 0.08 0.05 0.02 0.01 0.00 0.00 0.00 0.00 0.00 0.00 0.00 0.00 0.00 0.00 0.00 0.00 0.00 0.00 0.00 0.00 0.00 0.00 0.00 0.00 0.00 0.00 0.00 0.00
0.30 0.22 0.12 0.10 0.06 0.04 0.02 0.01 0.02 0.02 0.01 0.01 0.02 0.02 0.04 0.05 0.03 0.02 0.02 0.01 0.01 0.00 0.00 0.00 0.00 0.00 0.00 0.00 0.00 0.00 0.00 0.00 0.00 0.00 0.00 0.00 0.00 0.00 0.00 0.00 0.00 0.01 0.01
0.27 0.27 0.14 0.10 0.07 0.04 0.02 0.01 0.01 0.01 0.01 0.01 0.00 0.00 0.01 0.02 0.03 0.02 0.02 0.01 0.00 0.01 0.00 0.00 0.00 0.00 0.00 0.00 0.00 0.00 0.00 0.00 0.00 0.00 0.00 0.00 0.00 0.00 0.00 0.00 0.01 0.01 0.01
0.45 0.43 0.19 0.08 0.03 0.02 0.01 0.01 0.01 0.01 0.02 0.03 0.03 0.03 0.02 0.04 0.05 0.04 0.03 0.04 0.02 0.01 0.01 0.01 0.00 0.00 0.00 0.00 0.00 0.00 0.00 0.00 0.00 0.00 0.00 0.00 0.00 0.00 0.01 0.01 0.01 0.01 0.01
0.61 0.57 0.24 0.07 0.02 0.01 0.01 0.01 0.01 0.02 0.03 0.05 0.06 0.05 0.03 0.03 0.04 0.03 0.04 0.04 0.02 0.01 0.01 0.01 0.01 0.01 0.01 0.01 0.00 0.01 0.01 0.01 0.01 0.01 0.01 0.01 0.02 0.02 0.02 0.02 0.03 0.03 0.02
0.93 0.91 0.38 0.08 0.02 0.01 0.01 0.01 0.01 0.02 0.03 0.03 0.03 0.02 0.01 0.01 0.02 0.03 0.03 0.03 0.02 0.02 0.02 0.03 0.03 0.02 0.03 0.03 0.02 0.03 0.03 0.04 0.04 0.04 0.05 0.05 0.05 0.06 0.05 0.05 0.04 0.04 0.03
1.36 1.19 0.47 0.13 0.06 0.04 0.03 0.02 0.02 0.02 0.02 0.02 0.02 0.02 0.01 0.01 0.01 0.01 0.02 0.03 0.02 0.03 0.04 0.06 0.09 0.08 0.08 0.08 0.07 0.07 0.05 0.05 0.06 0.06 0.06 0.06 0.06 0.06 0.05 0.06 0.05 0.04 0.04
1.79 1.35 0.61 0.34 0.22 0.11 0.06 0.04 0.04 0.03 0.03 0.03 0.03 0.02 0.02 0.01 0.02 0.02 0.03 0.04 0.03 0.05 0.08 0.10 0.11 0.09 0.08 0.06 0.04 0.04 0.04 0.05 0.05 0.05 0.04 0.04 0.04 0.04 0.03 0.03 0.03 0.03 0.04
0.83 0.77 0.62 0.49 0.35 0.26 0.20 0.13 0.09 0.06 0.05 0.04 0.04 0.05 0.06 0.05 0.06 0.07 0.06 0.07 0.06 0.06 0.06 0.05 0.05 0.05 0.04 0.03 0.02 0.02 0.01 0.01 0.02 0.02 0.01 0.01 0.01 0.01 0.01 0.01 0.01 0.01 0.02
0.49 0.60 0.61 0.53 0.43 0.34 0.27 0.20 0.16 0.12 0.10 0.10 0.12 0.15 0.13 0.12 0.11 0.09 0.08 0.05 0.05 0.04 0.03 0.03 0.03 0.02 0.01 0.01 0.01 0.01 0.00 0.00 0.00 0.00 0.00 0.00 0.00 0.00 0.00 0.00 0.00 0.00 0.00
0.37 0.53 0.58 0.50 0.41 0.34 0.29 0.25 0.24 0.21 0.18 0.20 0.23 0.24 0.19 0.16 0.12 0.09 0.06 0.03 0.02 0.01 0.01 0.01 0.01 0.01 0.01 0.01 0.01 0.02 0.02 0.01 0.00 0.00 0.00 0.00 0.00 0.00 0.00 0.00 0.00 0.00 0.00
0.39 0.48 0.49 0.42 0.36 0.33 0.31 0.28 0.28 0.27 0.26 0.26 0.20 0.19 0.15 0.09 0.05 0.03 0.02 0.01 0.01 0.00 0.00 0.00 0.01 0.01 0.01 0.01 0.00 0.01 0.01 0.01 0.02 0.01 0.00 0.00 0.00 0.00 0.00 0.00 0.00 0.00 0.00
0.33 0.38 0.39 0.37 0.35 0.31 0.28 0.25 0.24 0.23 0.21 0.15 0.09 0.07 0.04 0.02 0.01 0.00 0.00 0.01 0.01 0.00 0.00 0.00 0.00 0.00 0.00 0.00 0.00 0.01 0.01 0.01 0.02 0.04 0.02 0.01 0.00 0.00 0.00 0.00 0.00 0.00 0.00
0.20 0.24 0.27 0.29 0.30 0.27 0.23 0.21 0.17 0.14 0.11 0.07 0.04 0.03 0.01 0.00 0.00 0.00 0.00 0.00 0.00 0.00 0.00 0.00 0.00 0.01 0.01 0.02 0.02 0.02 0.02 0.03 0.03 0.04 0.05 0.03 0.01 0.00 0.00 0.00 0.00 0.00 0.01

GEFSSE_prec_meanprecacc_042.txt.gz
Total_Precipitation_Accumulation
0.01 0.00 0.00 0.01 0.01 0.00 0.00 0.01 0.02 0.05 0.07 0.09 0.11 0.13 0.13 0.10 0.08 0.08 0.07 0.07 0.07 0.09 0.12 0.17 0.20 0.23 0.26 0.26 0.18 0.11 0.08 0.07 0.05 0.03 0.02 0.02 0.02 0.02 0.04 0.03 0.02 0.03 0.01
0.01 0.00 0.01 0.01 0.02 0.01 0.00 0.01 0.02 0.04 0.06 0.07 0.07 0.08 0.08 0.08 0.07 0.07 0.08 0.09 0.10 0.12 0.12 0.14 0.18 0.22 0.22 0.19 0.14 0.09 0.06 0.04 0.03 0.04 0.06 0.11 0.16 0.12 0.10 0.09 0.05 0.06 0.01
0.01 0.00 0.01 0.01 0.02 0.02 0.02 0.02 0.02 0.04 0.07 0.08 0.07 0.06 0.05 0.04 0.04 0.05 0.07 0.10 0.14 0.16 0.15 0.14 0.15 0.16 0.16 0.13 0.08 0.05 0.02 0.02 0.03 0.06 0.15 0.28 0.37 0.28 0.24 0.21 0.20 0.12 0.03
0.01 0.00 0.00 0.01 0.02 0.04 0.03 0.04 0.03 0.05 0.08 0.12 0.13 0.11 0.07 0.04 0.04 0.06 0.08 0.10 0.13 0.15 0.13 0.11 0.10 0.10 0.08 0.05 0.04 0.02 0.01 0.01 0.03 0.07 0.16 0.26 0.36 0.31 0.24 0.25 0.32 0.30 0.21
0.02 0.01 0.00 0.01 0.02 0.05 0.06 0.06 0.06 0.07 0.11 0.15 0.17 0.17 0.12 0.06 0.04 0.07 0.10 0.11 0.12 0.15 0.17 0.14 0.09 0.06 0.04 0.03 0.03 0.01 0.01 0.01 0.04 0.13 0.28 0.43 0.48 0.44 0.31 0.27 0.32 0.37 0.36
0.01 0.00 0.00 0.01 0.02 0.05 0.08 0.08 0.09 0.10 0.13 0.17 0.21 0.20 0.13 0.06 0.05 0.08 0.12 0.15 0.17 0.20 0.25 0.22 0.20 0.13 0.08 0.05 0.03 0.02 0.02 0.03 0.09 0.26 0.38 0.50 0.50 0.43 0.28 0.22 0.24 0.34 0.36
0.01 0.01 0.00 0.02 0.03 0.06 0.08 0.07 0.08 0.11 0.13 0.18 0.21 0.17 0.11 0.06 0.04 0.07 0.14 0.17 0.21 0.24 0.24 0.21 0.19 0.14 0.12 0.10 0.08 0.09 0.10 0.13 0.18 0.31 0.35 0.37 0.37 0.29 0.20 0.16 0.14 0.15 0.20
0.02 0.01 0.00 0.01 0.03 0.10 0.15 0.10 0.06 0.08 0.10 0.15 0.19 0.16 0.10 0.08 0.09 0.13 0.15 0.18 0.21 0.19 0.16 0.17 0.16 0.13 0.15 0.17 0.17 0.18 0.18 0.20 0.19 0.22 0.22 0.21 0.21 0.13 0.15 0.16 0.11 0.08 0.08
0.08 0.05 0.02 0.02 0.02 0.05 0.06 0.05 0.04 0.04 0.07 0.12 0.17 0.20 0.16 0.13 0.20 0.24 0.21 0.21 0.25 0.21 0.16 0.17 0.18 0.15 0.19 0.23 0.19 0.16 0.14 0.12 0.09 0.07 0.07 0.07 0.07 0.05 0.06 0.07 0.06 0.04 0.04
0.30 0.38 0.16 0.09 0.04 0.02 0.02 0.01 0.01 0.01 0.02 0.05 0.08 0.12 0.13 0.15 0.19 0.21 0.17 0.16 0.19 0.14 0.11 0.10 0.12 0.12 0.10 0.08 0.05 0.03 0.02 0.02 0.01 0.01 0.01 0.02 0.02 0.02 0.02 0.02 0.02 0.03 0.03
0.54 0.71 0.49 0.18 0.04 0.01 0.02 0.01 0.00 0.00 0.00 0.01 0.02 0.04 0.09 0.18 0.21 0.19 0.12 0.09 0.07 0.04 0.02 0.02 0.02 0.01 0.01 0.01 0.00 0.00 0.00 0.00 0.00 0.00 0.01 0.02 0.02 0.01 0.01 0.01 0.00 0.00 0.01
0.64 0.60 0.47 0.11 0.03 0.01 0.01 0.01 0.02 0.01 0.01 0.03 0.05 0.04 0.11 0.18 0.20 0.13 0.06 0.03 0.01 0.00 0.00 0.00 0.00 0.00 0.00 0.00 0.00 0.00 0.00 0.00 0.00 0.00 0.00 0.00 0.00 0.01 0.00 0.00 0.00 0.00 0.00
0.57 0.32 0.16 0.10 0.06 0.03 0.01 0.01 0.02 0.02 0.02 0.02 0.04 0.04 0.09 0.08 0.05 0.02 0.01 0.01 0.00 0.00 0.00 0.00 0.00 0.00 0.00 0.00 0.00 0.00 0.00 0.00 0.00 0.00 0.00 0.00 0.00 0.00 0.00 0.00 0.00 0.00 0.00
0.32 0.23 0.13 0.10 0.07 0.05 0.02 0.01 0.02 0.02 0.02 0.02 0.02 0.02 0.04 0.06 0.05 0.04 0.03 0.02 0.02 0.01 0.01 0.00 0.00 0.00 0.00 0.00 0.00 0.00 0.00 0.00 0.00 0.00 0.00 0.00 0.00 0.00 0.00 0.00 0.01 0.01 0.01
0.31 0.29 0.16 0.11 0.07 0.04 0.02 0.01 0.01 0.01 0.01 0.01 0.01 0.01 0.01 0.03 0.04 0.05 0.05 0.03 0.02 0.03 0.03 0.02 0.02 0.01 0.00 0.00 0.00 0.00 0.00 0.00 0.00 0.00 0.00 0.00 0.00 0.00 0.00 0.01 0.01 0.01 0.01
0.49 0.46 0.23 0.10 0.04 0.02 0.01 0.01 0.01 0.01 0.02 0.03 0.04 0.03 0.02 0.04 0.05 0.05 0.05 0.05 0.02 0.02 0.02 0.02 0.02 0.02 0.01 0.01 0.01 0.01 0.01 0.01 0.01 0.00 0.00 0.00 0.00 0.01 0.01 0.01 0.02 0.02 0.02
0.69 0.64 0.29 0.09 0.03 0.02 0.01 0.01 0.01 0.02 0.03 0.05 0.06 0.05 0.03 0.03 0.05 0.04 0.04 0.04 0.02 0.02 0.02 0.02 0.01 0.01 0.01 0.01 0.01 0.01 0.02 0.02 0.02 0.01 0.02 0.02 0.02 0.03 0.03 0.03 0.03 0.04 0.03
1.01 1.00 0.41 0.10 0.03 0.03 0.03 0.02 0.02 0.02 0.03 0.03 0.03 0.03 0.01 0.01 0.02 0.03 0.03 0.03 0.03 0.02 0.02 0.03 0.03 0.02 0.04 0.03 0.03 0.04 0.04 0.04 0.04 0.04 0.05 0.05 0.06 0.06 0.06 0.05 0.05 0.05 0.04
1.49 1.27 0.51 0.16 0.08 0.06 0.06 0.04 0.05 0.06 0.05 0.04 0.04 0.03 0.02 0.02 0.02 0.02 0.04 0.04 0.04 0.04 0.05 0.07 0.09 0.09 0.09 0.08 0.07 0.07 0.06 0.05 0.06 0.07 0.07 0.07 0.06 0.06 0.06 0.06 0.06 0.06 0.05
1.91 1.43 0.68 0.42 0.30 0.18 0.11 0.08 0.08 0.08 0.07 0.07 0.06 0.06 0.06 0.05 0.04 0.05 0.07 0.08 0.06 0.07 0.10 0.12 0.12 0.10 0.08 0.06 0.04 0.04 0.04 0.05 0.05 0.05 0.04 0.04 0.04 0.04 0.03 0.03 0.03 0.03 0.05
0.92 0.83 0.69 0.59 0.49 0.36 0.26 0.19 0.15 0.13 0.10 0.11 0.13 0.13 0.14 0.14 0.13 0.13 0.10 0.10 0.10 0.10 0.09 0.07 0.06 0.06 0.04 0.03 0.02 0.02 0.01 0.01 0.02 0.02 0.01 0.01 0.01 0.01 0.01 0.01 0.01 0.01 0.02
0.53 0.65 0.68 0.59 0.50 0.43 0.39 0.30 0.25 0.20 0.18 0.20 0.24 0.29 0.28 0.25 0.22 0.17 0.13 0.09 0.08 0.07 0.05 0.04 0.03 0.02 0.01 0.01 0.01 0.01 0.00 0.00 0.00 0.00 0.00 0.00 0.00 0.00 0.00 0.00 0.00 0.00 0.00
0.43 0.61 0.67 0.61 0.57 0.54 0.46 0.40 0.37 0.33 0.30 0.35 0.41 0.42 0.37 0.30 0.23 0.17 0.11 0.06 0.04 0.03 0.02 0.02 0.02 0.02 0.01 0.01 0.01 0.02 0.02 0.01 0.00 0.00 0.00 0.00 0.00 0.00 0.00 0.00 0.00 0.00 0.00
0.49 0.62 0.65 0.63 0.61 0.59 0.52 0.48 0.48 0.46 0.43 0.46 0.40 0.38 0.31 0.21 0.14 0.09 0.06 0.04 0.02 0.01 0.01 0.01 0.01 0.01 0.01 0.01 0.00 0.01 0.01 0.01 0.02 0.01 0.00 0.00 0.00 0.00 0.00 0.00 0.00 0.00 0.00
0.50 0.60 0.63 0.63 0.64 0.60 0.53 0.50 0.49 0.45 0.42 0.36 0.28 0.23 0.16 0.11 0.07 0.05 0.03 0.02 0.01 0.01 0.01 0.01 0.00 0.00 0.00 0.00 0.00 0.01 0.01 0.01 0.02 0.04 0.02 0.01 0.00 0.00 0.00 0.00 0.00 0.00 0.00
0.35 0.44 0.47 0.47 0.49 0.49 0.46 0.42 0.36 0.33 0.30 0.25 0.18 0.13 0.08 0.05 0.03 0.02 0.01 0.01 0.01 0.00 0.00 0.00 0.00 0.01 0.01 0.02 0.02 0.02 0.02 0.03 0.03 0.04 0.05 0.03 0.01 0.00 0.00 0.00 0.00 0.00 0.01

GEFSSE_prec_meanprecacc_048.txt.gz
Total_Precipitation_Accumulation
0.01 0.00 0.01 0.01 0.01 0.01 0.00 0.01 0.02 0.05 0.07 0.09 0.11 0.13 0.13 0.11 0.09 0.09 0.08 0.08 0.08 0.10 0.14 0.18 0.21 0.24 0.27 0.27 0.19 0.11 0.08 0.07 0.06 0.04 0.02 0.03 0.04 0.05 0.07 0.06 0.04 0.04 0.01
0.01 0.00 0.01 0.01 0.02 0.01 0.00 0.01 0.02 0.04 0.06 0.07 0.07 0.08 0.09 0.08 0.07 0.08 0.09 0.10 0.11 0.13 0.13 0.15 0.19 0.23 0.23 0.20 0.15 0.09 0.06 0.04 0.04 0.05 0.07 0.12 0.17 0.15 0.15 0.12 0.07 0.07 0.02
0.01 0.00 0.01 0.01 0.02 0.02 0.02 0.02 0.02 0.04 0.07 0.08 0.07 0.06 0.05 0.04 0.04 0.05 0.07 0.10 0.15 0.17 0.15 0.15 0.15 0.17 0.17 0.13 0.08 0.05 0.02 0.02 0.03 0.07 0.16 0.28 0.38 0.30 0.27 0.23 0.22 0.13 0.04
0.01 0.00 0.00 0.01 0.02 0.04 0.03 0.04 0.03 0.05 0.08 0.12 0.13 0.11 0.07 0.04 0.04 0.06 0.08 0.10 0.14 0.15 0.13 0.11 0.10 0.10 0.08 0.05 0.04 0.02 0.01 0.01 0.03 0.07 0.16 0.26 0.36 0.34 0.28 0.27 0.33 0.31 0.21
0.02 0.01 0.00 0.01 0.02 0.05 0.06 0.06 0.06 0.07 0.11 0.15 0.17 0.17 0.12 0.06 0.04 0.07 0.10 0.11 0.12 0.15 0.17 0.14 0.10 0.06 0.04 0.03 0.03 0.01 0.01 0.01 0.04 0.14 0.29 0.44 0.48 0.46 0.34 0.29 0.32 0.37 0.37
0.01 0.00 0.00 0.01 0.02 0.05 0.08 0.09 0.09 0.10 0.13 0.17 0.21 0.20 0.13 0.06 0.05 0.08 0.12 0.15 0.17 0.20 0.25 0.22 0.20 0.13 0.08 0.05 0.03 0.02 0.02 0.04 0.09 0.27 0.39 0.50 0.51 0.46 0.33 0.26 0.26 0.35 0.37
0.02 0.01 0.00 0.02 0.03 0.06 0.08 0.07 0.08 0.11 0.13 0.18 0.21 0.17 0.11 0.06 0.04 0.07 0.14 0.17 0.21 0.24 0.24 0.21 0.19 0.14 0.12 0.10 0.08 0.09 0.10 0.13 0.18 0.31 0.35 0.37 0.37 0.31 0.24 0.21 0.18 0.18 0.22
0.02 0.01 0.00 0.01 0.03 0.10 0.15 0.10 0.07 0.08 0.10 0.15 0.19 0.16 0.10 0.08 0.09 0.13 0.15 0.18 0.21 0.19 0.16 0.17 0.16 0.13 0.15 0.17 0.17 0.18 0.19 0.20 0.19 0.22 0.22 0.22 0.21 0.15 0.18 0.20 0.14 0.10 0.09
0.08 0.05 0.02 0.02 0.02 0.05 0.06 0.05 0.04 0.04 0.07 0.12 0.17 0.20 0.16 0.13 0.20 0.24 0.21 0.22 0.25 0.21 0.16 0.17 0.18 0.15 0.19 0.23 0.19 0.16 0.14 0.12 0.09 0.07 0.07 0.08 0.08 0.06 0.08 0.09 0.08 0.06 0.05
0.30 0.38 0.16 0.09 0.04 0.02 0.02 0.01 0.01 0.01 0.02 0.05 0.08 0.12 0.13 0.15 0.19 0.21 0.18 0.16 0.19 0.14 0.11 0.10 0.12 0.12 0.10 0.08 0.05 0.03 0.03 0.02 0.01 0.01 0.01 0.02 0.03 0.03 0.04 0.03 0.03 0.04 0.04
0.54 0.71 0.49 0.18 0.04 0.01 0.02 0.01 0.00 0.00 0.00 0.01 0.02 0.04 0.09 0.18 0.21 0.19 0.12 0.09 0.07 0.04 0.02 0.02 0.02 0.01 0.01 0.01 0.00 0.00 0.00 0.00 0.00 0.00 0.01 0.02 0.02 0.02 0.02 0.01 0.01 0.01 0.02
0.64 0.60 0.47 0.11 0.03 0.01 0.01 0.01 0.02 0.01 0.01 0.03 0.05 0.04 0.11 0.18 0.20 0.13 0.06 0.03 0.01 0.00 0.00 0.00 0.00 0.00 0.00 0.00 0.00 0.00 0.00 0.00 0.00 0.00 0.00 0.00 0.01 0.01 0.01 0.01 0.01 0.01 0.01
0.57 0.32 0.16 0.10 0.06 0.03 0.01 0.01 0.02 0.02 0.02 0.02 0.04 0.04 0.09 0.08 0.05 0.02 0.01 0.01 0.00 0.00 0.00 0.00 0.00 0.00 0.00 0.00 0.00 0.00 0.00 0.00 0.00 0.00 0.00 0.00 0.01 0.01 0.01 0.01 0.01 0.01 0.01
0.32 0.23 0.13 0.10 0.07 0.05 0.02 0.01 0.02 0.02 0.02 0.02 0.02 0.02 0.04 0.06 0.05 0.04 0.03 0.02 0.02 0.01 0.01 0.01 0.00 0.00 0.00 0.00 0.00 0.00 0.00 0.00 0.00 0.00 0.00 0.00 0.00 0.01 0.01 0.01 0.01 0.01 0.01
0.31 0.29 0.16 0.11 0.07 0.04 0.02 0.01 0.01 0.01 0.01 0.01 0.01 0.01 0.01 0.03 0.04 0.05 0.05 0.03 0.02 0.03 0.03 0.02 0.02 0.01 0.00 0.00 0.00 0.00 0.00 0.00 0.00 0.00 0.00 0.00 0.00 0.01 0.02 0.02 0.02 0.02 0.02
0.49 0.46 0.23 0.11 0.04 0.03 0.02 0.01 0.01 0.01 0.03 0.03 0.04 0.03 0.02 0.04 0.06 0.06 0.06 0.05 0.03 0.02 0.03 0.03 0.03 0.02 0.01 0.01 0.01 0.01 0.01 0.01 0.01 0.00 0.00 0.01 0.01 0.01 0.02 0.03 0.05 0.05 0.04
0.69 0.64 0.30 0.10 0.03 0.02 0.02 0.02 0.02 0.03 0.05 0.05 0.06 0.05 0.04 0.04 0.06 0.05 0.06 0.05 0.04 0.03 0.03 0.04 0.03 0.03 0.03 0.03 0.02 0.02 0.02 0.02 0.02 0.02 0.02 0.02 0.03 0.03 0.04 0.05 0.06 0.06 0.06
1.01 1.00 0.42 0.10 0.04 0.04 0.05 0.06 0.06 0.07 0.06 0.06 0.07 0.06 0.05 0.05 0.06 0.06 0.06 0.06 0.06 0.06 0.07 0.08 0.09 0.07 0.08 0.07 0.05 0.05 0.05 0.05 0.05 0.05 0.05 0.06 0.06 0.07 0.07 0.07 0.07 0.07 0.07
1.49 1.28 0.51 0.17 0.10 0.10 0.11 0.13 0.17 0.18 0.16 0.14 0.13 0.13 0.12 0.10 0.09 0.10 0.12 0.14 0.15 0.15 0.15 0.16 0.18 0.17 0.16 0.13 0.11 0.10 0.08 0.06 0.07 0.07 0.07 0.07 0.07 0.07 0.07 0.07 0.07 0.07 0.07
1.92 1.44 0.69 0.44 0.35 0.25 0.20 0.21 0.24 0.26 0.25 0.25 0.22 0.20 0.19 0.19 0.21 0.23 0.26 0.28 0.26 0.24 0.24 0.25 0.24 0.19 0.15 0.11 0.08 0.06 0.06 0.06 0.06 0.05 0.05 0.04 0.04 0.04 0.03 0.03 0.03 0.04 0.06
0.93 0.84 0.70 0.62 0.55 0.46 0.44 0.45 0.51 0.50 0.43 0.37 0.37 0.36 0.39 0.42 0.47 0.47 0.40 0.37 0.31 0.28 0.25 0.21 0.16 0.12 0.09 0.06 0.05 0.04 0.03 0.02 0.02 0.02 0.01 0.01 0.01 0.01 0.01 0.01 0.01 0.01 0.02
0.55 0.68 0.70 0.62 0.57 0.60 0.69 0.74 0.78 0.76 0.70 0.64 0.62 0.67 0.69 0.67 0.62 0.53 0.44 0.34 0.28 0.23 0.17 0.14 0.11 0.08 0.05 0.03 0.03 0.02 0.01 0.01 0.00 0.00 0.00 0.00 0.00 0.00 0.00 0.00 0.00 0.00 0.00
0.46 0.65 0.71 0.67 0.71 0.82 0.90 0.99 1.03 0.98 0.86 0.84 0.83 0.86 0.81 0.75 0.67 0.57 0.45 0.32 0.22 0.17 0.13 0.10 0.07 0.04 0.02 0.01 0.01 0.02 0.02 0.01 0.00 0.00 0.00 0.00 0.00 0.00 0.00 0.00 0.00 0.00 0.00
0.52 0.66 0.71 0.74 0.85 1.00 1.07 1.10 1.12 1.09 1.02 1.00 0.87 0.83 0.75 0.63 0.55 0.45 0.32 0.23 0.17 0.11 0.08 0.04 0.03 0.02 0.02 0.01 0.00 0.01 0.01 0.01 0.02 0.01 0.00 0.00 0.00 0.00 0.00 0.00 0.00 0.00 0.00
0.54 0.66 0.71 0.79 0.95 1.08 1.13 1.16 1.22 1.19 1.08 0.93 0.76 0.65 0.53 0.41 0.32 0.25 0.17 0.12 0.08 0.05 0.03 0.02 0.01 0.01 0.01 0.01 0.01 0.01 0.01 0.01 0.02 0.04 0.02 0.01 0.00 0.00 0.00 0.00 0.00 0.00 0.00
0.40 0.53 0.60 0.70 0.89 1.03 1.10 1.11 1.06 0.99 0.82 0.64 0.54 0.46 0.36 0.26 0.19 0.14 0.10 0.06 0.04 0.02 0.01 0.01 0.01 0.01 0.02 0.02 0.02 0.02 0.03 0.03 0.03 0.04 0.05 0.03 0.01 0.00 0.00 0.00 0.00 0.00 0.01

GEFSSE_prec_meanprecacc_054.txt.gz
Total_Precipitation_Accumulation
0.01 0.00 0.01 0.01 0.01 0.01 0.00 0.01 0.04 0.06 0.08 0.10 0.13 0.14 0.14 0.12 0.11 0.11 0.10 0.09 0.09 0.12 0.16 0.21 0.22 0.25 0.28 0.28 0.19 0.11 0.08 0.07 0.06 0.04 0.03 0.03 0.04 0.05 0.08 0.07 0.04 0.05 0.02
0.01 0.00 0.01 0.01 0.02 0.01 0.01 0.01 0.03 0.05 0.07 0.07 0.08 0.09 0.10 0.09 0.08 0.09 0.10 0.11 0.12 0.15 0.14 0.16 0.20 0.24 0.24 0.20 0.15 0.09 0.06 0.04 0.04 0.05 0.08 0.13 0.18 0.16 0.15 0.12 0.08 0.07 0.02
0.01 0.00 0.01 0.01 0.02 0.02 0.02 0.02 0.03 0.05 0.08 0.09 0.08 0.07 0.06 0.05 0.05 0.06 0.08 0.11 0.15 0.18 0.17 0.16 0.16 0.17 0.17 0.13 0.08 0.05 0.02 0.02 0.03 0.07 0.17 0.30 0.39 0.31 0.27 0.23 0.22 0.14 0.04
0.01 0.00 0.00 0.01 0.02 0.04 0.04 0.04 0.03 0.05 0.09 0.13 0.13 0.11 0.08 0.04 0.05 0.07 0.08 0.10 0.14 0.16 0.14 0.12 0.10 0.10 0.08 0.05 0.04 0.02 0.01 0.01 0.03 0.08 0.17 0.27 0.37 0.35 0.28 0.28 0.34 0.31 0.22
0.02 0.01 0.01 0.01 0.02 0.05 0.06 0.06 0.06 0.08 0.11 0.15 0.18 0.18 0.12 0.06 0.04 0.07 0.10 0.11 0.13 0.16 0.18 0.14 0.10 0.06 0.04 0.03 0.03 0.01 0.01 0.01 0.05 0.14 0.29 0.45 0.50 0.47 0.35 0.29 0.33 0.38 0.38
0.01 0.00 0.00 0.01 0.02 0.05 0.08 0.09 0.09 0.11 0.13 0.18 0.21 0.20 0.13 0.06 0.05 0.08 0.13 0.16 0.17 0.20 0.25 0.22 0.20 0.13 0.08 0.05 0.03 0.02 0.03 0.05 0.09 0.27 0.39 0.51 0.52 0.48 0.35 0.27 0.27 0.36 0.39
0.02 0.01 0.00 0.02 0.03 0.06 0.08 0.08 0.09 0.11 0.14 0.18 0.21 0.17 0.11 0.07 0.05 0.08 0.15 0.18 0.21 0.24 0.24 0.21 0.19 0.14 0.12 0.10 0.09 0.09 0.11 0.14 0.19 0.31 0.35 0.37 0.38 0.33 0.27 0.24 0.20 0.20 0.24
0.02 0.01 0.01 0.01 0.03 0.10 0.16 0.10 0.07 0.09 0.11 0.16 0.20 0.17 0.11 0.08 0.10 0.14 0.16 0.19 0.22 0.20 0.17 0.17 0.16 0.13 0.15 0.17 0.17 0.18 0.20 0.21 0.19 0.23 0.22 0.23 0.23 0.16 0.20 0.22 0.16 0.12 0.11
0.08 0.05 0.02 0.02 0.02 0.05 0.07 0.05 0.05 0.06 0.08 0.13 0.18 0.21 0.16 0.13 0.20 0.24 0.22 0.23 0.26 0.21 0.17 0.17 0.18 0.15 0.19 0.24 0.19 0.16 0.15 0.13 0.09 0.07 0.07 0.08 0.08 0.07 0.10 0.11 0.09 0.08 0.06
0.30 0.38 0.17 0.09 0.04 0.02 0.02 0.01 0.02 0.02 0.03 0.06 0.08 0.12 0.13 0.15 0.19 0.21 0.18 0.17 0.19 0.14 0.11 0.10 0.12 0.12 0.10 0.09 0.05 0.03 0.03 0.02 0.01 0.01 0.01 0.03 0.03 0.04 0.05 0.05 0.04 0.05 0.05
0.54 0.71 0.49 0.18 0.04 0.01 0.02 0.01 0.01 0.00 0.01 0.01 0.02 0.04 0.09 0.18 0.21 0.20 0.12 0.09 0.07 0.04 0.02 0.02 0.02 0.02 0.01 0.01 0.01 0.00 0.01 0.00 0.00 0.00 0.01 0.02 0.03 0.04 0.05 0.03 0.02 0.02 0.03
0.64 0.60 0.47 0.11 0.03 0.01 0.01 0.01 0.02 0.02 0.01 0.03 0.05 0.04 0.11 0.19 0.21 0.13 0.07 0.03 0.01 0.00 0.00 0.00 0.00 0.00 0.00 0.00 0.00 0.00 0.00 0.00 0.00 0.00 0.00 0.01 0.02 0.03 0.03 0.03 0.02 0.02 0.02
0.57 0.32 0.16 0.10 0.06 0.03 0.01 0.02 0.02 0.02 0.02 0.02 0.04 0.04 0.09 0.09 0.06 0.03 0.02 0.01 0.01 0.01 0.00 0.01 0.00 0.00 0.00 0.00 0.00 0.00 0.00 0.00 0.00 0.00 0.00 0.01 0.01 0.02 0.02 0.02 0.02 0.02 0.02
0.32 0.23 0.13 0.10 0.07 0.05 0.02 0.01 0.02 0.02 0.02 0.02 0.02 0.02 0.05 0.06 0.05 0.04 0.04 0.02 0.03 0.02 0.02 0.01 0.00 0.00 0.00 0.00 0.00 0.00 0.00 0.00 0.00 0.00 0.00 0.00 0.01 0.01 0.02 0.02 0.03 0.03 0.03
0.31 0.29 0.16 0.11 0.07 0.04 0.02 0.01 0.01 0.01 0.01 0.01 0.01 0.01 0.02 0.03 0.04 0.06 0.06 0.05 0.04 0.04 0.04 0.03 0.02 0.02 0.01 0.00 0.00 0.00 0.00 0.00 0.00 0.00 0.00 0.00 0.00 0.01 0.02 0.02 0.03 0.04 0.04
0.49 0.46 0.23 0.11 0.04 0.03 0.02 0.01 0.01 0.02 0.03 0.04 0.04 0.04 0.03 0.05 0.07 0.07 0.08 0.08 0.06 0.05 0.05 0.05 0.05 0.04 0.02 0.02 0.02 0.02 0.01 0.01 0.01 0.00 0.01 0.01 0.01 0.01 0.02 0.03 0.05 0.06 0.06
0.69 0.64 0.30 0.10 0.03 0.03 0.02 0.02 0.02 0.03 0.05 0.06 0.07 0.07 0.05 0.06 0.09 0.09 0.10 0.10 0.08 0.07 0.08 0.08 0.08 0.07 0.06 0.06 0.05 0.04 0.04 0.03 0.03 0.02 0.02 0.03 0.03 0.03 0.04 0.05 0.07 0.08 0.07
1.01 1.00 0.42 0.10 0.04 0.04 0.05 0.06 0.07 0.08 0.07 0.08 0.09 0.10 0.09 0.11 0.14 0.16 0.16 0.16 0.15 0.14 0.16 0.17 0.17 0.15 0.14 0.12 0.10 0.08 0.07 0.07 0.06 0.06 0.06 0.06 0.07 0.07 0.07 0.07 0.07 0.08 0.08
1.49 1.28 0.51 0.17 0.10 0.10 0.12 0.14 0.19 0.20 0.20 0.21 0.21 0.22 0.22 0.23 0.24 0.28 0.32 0.32 0.30 0.30 0.29 0.28 0.30 0.28 0.25 0.21 0.17 0.13 0.10 0.08 0.09 0.08 0.08 0.08 0.07 0.07 0.07 0.07 0.08 0.08 0.08
1.92 1.44 0.69 0.44 0.36 0.28 0.25 0.27 0.32 0.38 0.43 0.45 0.39 0.35 0.33 0.34 0.40 0.49 0.53 0.53 0.49 0.46 0.45 0.46 0.43 0.32 0.24 0.18 0.13 0.09 0.08 0.07 0.07 0.06 0.05 0.05 0.05 0.04 0.03 0.03 0.03 0.04 0.06
0.94 0.85 0.70 0.63 0.58 0.54 0.55 0.60 0.71 0.83 0.82 0.70 0.63 0.60 0.61 0.66 0.75 0.79 0.75 0.70 0.62 0.57 0.51 0.42 0.33 0.26 0.19 0.14 0.12 0.08 0.05 0.04 0.03 0.02 0.02 0.01 0.02 0.01 0.01 0.01 0.01 0.01 0.02
0.57 0.70 0.71 0.64 0.65 0.74 0.91 1.06 1.25 1.34 1.25 1.12 1.04 1.03 1.05 1.03 0.98 0.89 0.83 0.74 0.65 0.54 0.42 0.35 0.30 0.25 0.20 0.15 0.12 0.09 0.04 0.02 0.02 0.01 0.01 0.01 0.01 0.00 0.00 0.00 0.00 0.00 0.00
0.48 0.68 0.72 0.69 0.80 1.00 1.20 1.48 1.67 1.63 1.51 1.49 1.44 1.41 1.32 1.19 1.09 0.98 0.86 0.76 0.66 0.56 0.44 0.34 0.28 0.22 0.17 0.12 0.09 0.07 0.05 0.03 0.02 0.01 0.01 0.01 0.00 0.00 0.00 0.00 0.00 0.00 0.00
0.54 0.68 0.73 0.76 0.92 1.17 1.37 1.56 1.68 1.69 1.68 1.70 1.50 1.35 1.20 1.06 0.98 0.89 0.78 0.67 0.56 0.44 0.33 0.24 0.17 0.13 0.10 0.07 0.05 0.04 0.04 0.03 0.03 0.02 0.01 0.00 0.00 0.00 0.00 0.00 0.00 0.00 0.00
0.55 0.67 0.74 0.81 1.01 1.22 1.38 1.48 1.62 1.74 1.70 1.51 1.22 1.03 0.88 0.78 0.71 0.59 0.47 0.37 0.31 0.24 0.16 0.10 0.07 0.05 0.04 0.03 0.02 0.02 0.02 0.02 0.03 0.05 0.03 0.01 0.00 0.00 0.00 0.00 0.00 0.00 0.00
0.41 0.54 0.62 0.72 0.95 1.16 1.31 1.37 1.41 1.43 1.28 1.03 0.84 0.71 0.59 0.52 0.46 0.38 0.30 0.22 0.17 0.14 0.09 0.06 0.05 0.04 0.04 0.04 0.04 0.03 0.03 0.03 0.03 0.04 0.05 0.03 0.01 0.00 0.00 0.00 0.00 0.00 0.01

GEFSSE_prec_meanprecacc_060.txt.gz
Total_Precipitation_Accumulation
0.01 0.00 0.01 0.01 0.01 0.01 0.00 0.02 0.05 0.09 0.11 0.13 0.14 0.15 0.15 0.13 0.12 0.11 0.11 0.10 0.10 0.13 0.18 0.23 0.24 0.26 0.29 0.28 0.19 0.11 0.08 0.07 0.06 0.04 0.03 0.03 0.04 0.05 0.08 0.07 0.06 0.05 0.02
0.01 0.00 0.01 0.01 0.02 0.01 0.01 0.02 0.04 0.07 0.10 0.10 0.10 0.11 0.11 0.11 0.10 0.11 0.12 0.12 0.14 0.17 0.17 0.18 0.22 0.25 0.24 0.20 0.15 0.09 0.06 0.04 0.04 0.05 0.08 0.13 0.18 0.16 0.15 0.12 0.10 0.10 0.02
0.01 0.00 0.01 0.01 0.02 0.02 0.02 0.02 0.04 0.07 0.11 0.13 0.12 0.10 0.08 0.08 0.08 0.09 0.10 0.12 0.17 0.21 0.19 0.18 0.17 0.18 0.17 0.13 0.08 0.05 0.02 0.02 0.03 0.08 0.23 0.36 0.40 0.31 0.27 0.24 0.23 0.15 0.04
0.01 0.00 0.00 0.01 0.02 0.04 0.04 0.04 0.04 0.07 0.11 0.16 0.17 0.15 0.11 0.08 0.08 0.10 0.10 0.12 0.17 0.19 0.16 0.14 0.11 0.11 0.08 0.05 0.04 0.02 0.01 0.01 0.04 0.10 0.30 0.37 0.39 0.35 0.28 0.28 0.34 0.32 0.22
0.02 0.01 0.01 0.01 0.02 0.05 0.06 0.07 0.07 0.10 0.14 0.19 0.22 0.22 0.16 0.09 0.07 0.11 0.13 0.13 0.15 0.18 0.19 0.15 0.10 0.07 0.04 0.03 0.03 0.01 0.01 0.02 0.05 0.17 0.37 0.52 0.53 0.48 0.35 0.30 0.33 0.38 0.38
0.01 0.00 0.00 0.01 0.02 0.05 0.08 0.09 0.11 0.13 0.17 0.22 0.26 0.25 0.17 0.10 0.08 0.11 0.15 0.18 0.19 0.22 0.26 0.22 0.20 0.13 0.08 0.05 0.03 0.02 0.03 0.05 0.10 0.29 0.44 0.57 0.55 0.49 0.35 0.27 0.27 0.36 0.39
0.02 0.01 0.00 0.02 0.03 0.06 0.08 0.08 0.11 0.15 0.18 0.24 0.27 0.23 0.16 0.11 0.08 0.11 0.17 0.20 0.23 0.25 0.25 0.21 0.19 0.14 0.12 0.10 0.09 0.09 0.11 0.14 0.20 0.35 0.43 0.43 0.42 0.34 0.27 0.24 0.20 0.20 0.24
0.02 0.01 0.01 0.01 0.03 0.10 0.16 0.11 0.09 0.12 0.15 0.21 0.26 0.22 0.15 0.11 0.13 0.16 0.18 0.21 0.23 0.20 0.17 0.17 0.16 0.13 0.15 0.17 0.17 0.18 0.20 0.22 0.20 0.27 0.29 0.26 0.24 0.17 0.20 0.22 0.17 0.12 0.12
0.08 0.05 0.02 0.02 0.02 0.05 0.07 0.06 0.06 0.07 0.11 0.16 0.21 0.24 0.19 0.15 0.22 0.25 0.23 0.24 0.27 0.21 0.17 0.17 0.18 0.15 0.19 0.24 0.19 0.16 0.15 0.13 0.10 0.09 0.12 0.11 0.10 0.08 0.11 0.12 0.10 0.08 0.07
0.30 0.38 0.17 0.09 0.04 0.02 0.02 0.02 0.02 0.02 0.04 0.07 0.10 0.13 0.14 0.16 0.19 0.21 0.19 0.18 0.20 0.15 0.11 0.10 0.12 0.12 0.10 0.09 0.05 0.03 0.03 0.02 0.02 0.03 0.07 0.09 0.05 0.06 0.07 0.06 0.05 0.06 0.06
0.54 0.71 0.49 0.18 0.04 0.01 0.02 0.01 0.01 0.01 0.01 0.02 0.03 0.05 0.09 0.19 0.23 0.21 0.13 0.10 0.07 0.04 0.02 0.02 0.02 0.02 0.01 0.01 0.01 0.01 0.01 0.00 0.01 0.02 0.08 0.09 0.06 0.06 0.06 0.05 0.03 0.03 0.04
0.64 0.60 0.47 0.11 0.03 0.01 0.01 0.01 0.02 0.02 0.01 0.03 0.05 0.05 0.12 0.21 0.23 0.17 0.11 0.05 0.02 0.01 0.01 0.01 0.00 0.00 0.00 0.00 0.00 0.00 0.00 0.00 0.01 0.01 0.02 0.02 0.03 0.04 0.05 0.03 0.03 0.03 0.02
0.57 0.32 0.16 0.10 0.06 0.03 0.01 0.02 0.02 0.02 0.03 0.03 0.05 0.06 0.12 0.11 0.07 0.05 0.05 0.04 0.02 0.02 0.02 0.02 0.01 0.00 0.00 0.00 0.00 0.00 0.00 0.00 0.01 0.01 0.01 0.02 0.02 0.03 0.03 0.03 0.03 0.03 0.03
0.32 0.23 0.13 0.10 0.07 0.05 0.02 0.01 0.02 0.02 0.02 0.02 0.04 0.04 0.07 0.09 0.07 0.06 0.07 0.07 0.07 0.06 0.06 0.04 0.03 0.02 0.01 0.01 0.00 0.00 0.00 0.00 0.00 0.00 0.01 0.01 0.01 0.02 0.02 0.02 0.03 0.03 0.03
0.31 0.29 0.16 0.11 0.07 0.04 0.02 0.01 0.01 0.01 0.01 0.02 0.02 0.03 0.03 0.05 0.06 0.08 0.08 0.08 0.08 0.09 0.09 0.08 0.05 0.04 0.04 0.05 0.02 0.02 0.01 0.01 0.00 0.01 0.01 0.00 0.01 0.01 0.02 0.02 0.04 0.05 0.05
0.49 0.46 0.23 0.11 0.04 0.03 0.02 0.01 0.01 0.02 0.04 0.04 0.05 0.05 0.04 0.07 0.11 0.11 0.12 0.13 0.09 0.10 0.12 0.10 0.08 0.07 0.06 0.09 0.06 0.07 0.09 0.04 0.01 0.01 0.02 0.02 0.02 0.03 0.03 0.04 0.06 0.07 0.07
0.69 0.64 0.30 0.10 0.03 0.03 0.02 0.02 0.03 0.04 0.06 0.08 0.10 0.09 0.06 0.09 0.14 0.15 0.17 0.17 0.14 0.14 0.14 0.13 0.12 0.12 0.14 0.15 0.11 0.11 0.10 0.06 0.03 0.03 0.04 0.04 0.05 0.07 0.06 0.07 0.08 0.08 0.09
1.01 1.00 0.42 0.10 0.04 0.04 0.06 0.07 0.08 0.09 0.09 0.10 0.13 0.14 0.11 0.14 0.20 0.25 0.27 0.27 0.26 0.24 0.25 0.25 0.24 0.22 0.22 0.19 0.16 0.15 0.13 0.09 0.07 0.07 0.07 0.08 0.08 0.09 0.09 0.09 0.08 0.08 0.08
1.49 1.28 0.51 0.17 0.10 0.11 0.13 0.15 0.20 0.22 0.23 0.24 0.26 0.28 0.28 0.29 0.31 0.37 0.42 0.44 0.45 0.45 0.41 0.36 0.36 0.35 0.35 0.31 0.24 0.21 0.17 0.14 0.13 0.11 0.09 0.09 0.08 0.08 0.08 0.08 0.08 0.08 0.08
1.92 1.44 0.70 0.45 0.37 0.29 0.26 0.29 0.33 0.40 0.47 0.48 0.43 0.40 0.38 0.41 0.47 0.58 0.62 0.63 0.61 0.58 0.56 0.56 0.52 0.42 0.33 0.28 0.21 0.16 0.13 0.11 0.10 0.09 0.08 0.07 0.05 0.05 0.04 0.04 0.04 0.05 0.06
0.95 0.85 0.72 0.65 0.60 0.55 0.58 0.62 0.74 0.86 0.87 0.76 0.68 0.66 0.67 0.74 0.83 0.89 0.86 0.81 0.72 0.68 0.64 0.55 0.46 0.37 0.30 0.24 0.22 0.17 0.12 0.08 0.06 0.04 0.04 0.03 0.03 0.02 0.02 0.02 0.02 0.01 0.03
0.59 0.71 0.73 0.67 0.68 0.77 0.94 1.10 1.31 1.43 1.35 1.23 1.15 1.12 1.13 1.12 1.07 0.99 0.95 0.85 0.76 0.65 0.55 0.47 0.42 0.37 0.33 0.26 0.21 0.18 0.13 0.08 0.05 0.03 0.02 0.02 0.01 0.01 0.01 0.01 0.01 0.01 0.01
0.52 0.70 0.76 0.77 0.88 1.06 1.27 1.57 1.79 1.76 1.65 1.64 1.58 1.54 1.41 1.27 1.16 1.07 0.96 0.88 0.78 0.68 0.58 0.49 0.41 0.36 0.29 0.22 0.17 0.14 0.12 0.08 0.05 0.03 0.02 0.01 0.01 0.01 0.01 0.01 0.00 0.00 0.00
0.60 0.74 0.82 0.90 1.05 1.29 1.48 1.68 1.82 1.83 1.81 1.83 1.63 1.48 1.30 1.14 1.05 0.96 0.85 0.75 0.65 0.55 0.45 0.35 0.27 0.21 0.17 0.13 0.10 0.09 0.08 0.06 0.06 0.04 0.02 0.01 0.00 0.00 0.00 0.00 0.00 0.00 0.00
0.59 0.73 0.84 0.95 1.16 1.37 1.53 1.63 1.74 1.85 1.82 1.64 1.36 1.13 0.95 0.84 0.76 0.64 0.52 0.43 0.38 0.31 0.24 0.16 0.12 0.09 0.08 0.07 0.06 0.06 0.05 0.05 0.05 0.06 0.03 0.01 0.01 0.00 0.00 0.00 0.00 0.00 0.00
0.48 0.64 0.72 0.83 1.08 1.34 1.51 1.56 1.56 1.56 1.41 1.17 0.96 0.79 0.64 0.57 0.50 0.42 0.33 0.25 0.20 0.16 0.11 0.08 0.07 0.06 0.06 0.06 0.05 0.04 0.04 0.05 0.04 0.05 0.05 0.03 0.02 0.01 0.00 0.00 0.00 0.01 0.01

GEFSSE_prec_meanprecacc_066.txt.gz
Total_Precipitation_Accumulation
0.01 0.00 0.01 0.01 0.01 0.01 0.00 0.02 0.05 0.09 0.11 0.13 0.15 0.15 0.15 0.13 0.12 0.12 0.11 0.10 0.11 0.14 0.18 0.23 0.24 0.27 0.29 0.28 0.19 0.11 0.09 0.08 0.06 0.04 0.03 0.04 0.05 0.06 0.09 0.07 0.06 0.06 0.02
0.01 0.00 0.01 0.01 0.02 0.01 0.01 0.02 0.04 0.07 0.10 0.11 0.11 0.11 0.11 0.11 0.11 0.12 0.12 0.13 0.14 0.17 0.17 0.19 0.22 0.25 0.25 0.20 0.15 0.09 0.06 0.04 0.05 0.06 0.09 0.13 0.18 0.17 0.17 0.13 0.11 0.10 0.02
0.01 0.00 0.01 0.01 0.02 0.03 0.02 0.03 0.04 0.07 0.11 0.13 0.13 0.10 0.09 0.09 0.09 0.09 0.11 0.13 0.18 0.21 0.20 0.18 0.18 0.18 0.18 0.13 0.08 0.05 0.03 0.03 0.06 0.11 0.26 0.38 0.40 0.32 0.28 0.24 0.24 0.15 0.04
0.02 0.00 0.00 0.01 0.02 0.04 0.04 0.04 0.05 0.08 0.12 0.17 0.17 0.16 0.13 0.10 0.09 0.11 0.12 0.13 0.18 0.20 0.17 0.14 0.12 0.11 0.08 0.05 0.04 0.02 0.02 0.03 0.07 0.14 0.34 0.41 0.41 0.36 0.29 0.28 0.34 0.32 0.23
0.02 0.01 0.01 0.01 0.02 0.05 0.06 0.07 0.07 0.10 0.15 0.19 0.23 0.23 0.18 0.11 0.09 0.12 0.14 0.15 0.16 0.18 0.20 0.15 0.10 0.07 0.04 0.03 0.03 0.02 0.02 0.04 0.09 0.23 0.47 0.61 0.58 0.49 0.36 0.30 0.33 0.39 0.39
0.01 0.00 0.00 0.01 0.02 0.05 0.08 0.09 0.11 0.14 0.18 0.23 0.28 0.26 0.18 0.11 0.10 0.13 0.17 0.19 0.20 0.22 0.27 0.23 0.20 0.13 0.08 0.05 0.03 0.03 0.04 0.07 0.13 0.36 0.56 0.70 0.62 0.53 0.36 0.28 0.27 0.36 0.39
0.02 0.01 0.00 0.02 0.03 0.06 0.08 0.09 0.11 0.15 0.19 0.24 0.28 0.24 0.17 0.11 0.09 0.12 0.18 0.20 0.23 0.26 0.25 0.22 0.20 0.14 0.12 0.10 0.09 0.09 0.12 0.16 0.23 0.43 0.58 0.55 0.54 0.41 0.30 0.25 0.21 0.20 0.24
0.02 0.01 0.01 0.01 0.03 0.10 0.16 0.11 0.09 0.12 0.16 0.22 0.26 0.22 0.15 0.12 0.13 0.17 0.18 0.21 0.23 0.21 0.17 0.17 0.16 0.13 0.15 0.17 0.17 0.18 0.20 0.22 0.23 0.34 0.43 0.41 0.33 0.23 0.24 0.24 0.17 0.13 0.12
0.08 0.05 0.02 0.02 0.02 0.05 0.07 0.06 0.06 0.07 0.11 0.17 0.21 0.24 0.19 0.15 0.22 0.25 0.23 0.24 0.27 0.21 0.17 0.17 0.18 0.15 0.19 0.24 0.19 0.16 0.15 0.14 0.12 0.16 0.25 0.30 0.20 0.14 0.14 0.13 0.11 0.09 0.07
0.30 0.38 0.17 0.09 0.04 0.02 0.02 0.02 0.02 0.02 0.04 0.07 0.10 0.13 0.14 0.16 0.20 0.21 0.19 0.18 0.20 0.15 0.11 0.10 0.12 0.12 0.10 0.09 0.05 0.03 0.03 0.03 0.04 0.07 0.13 0.15 0.15 0.12 0.10 0.07 0.06 0.06 0.06
0.54 0.71 0.49 0.18 0.04 0.01 0.02 0.01 0.01 0.01 0.01 0.02 0.03 0.05 0.09 0.19 0.23 0.21 0.13 0.10 0.07 0.04 0.03 0.02 0.02 0.02 0.01 0.01 0.01 0.01 0.01 0.01 0.03 0.05 0.12 0.15 0.14 0.11 0.09 0.06 0.04 0.03 0.04
0.64 0.60 0.47 0.11 0.03 0.01 0.01 0.01 0.02 0.02 0.01 0.03 0.05 0.05 0.12 0.21 0.24 0.17 0.11 0.05 0.02 0.01 0.01 0.01 0.01 0.00 0.00 0.00 0.00 0.01 0.00 0.02 0.03 0.04 0.05 0.08 0.09 0.09 0.08 0.05 0.04 0.03 0.03
0.57 0.32 0.16 0.10 0.06 0.03 0.01 0.02 0.02 0.02 0.03 0.03 0.05 0.06 0.12 0.11 0.08 0.05 0.05 0.05 0.03 0.02 0.02 0.03 0.02 0.01 0.01 0.01 0.01 0.02 0.02 0.02 0.03 0.03 0.04 0.06 0.07 0.07 0.06 0.05 0.04 0.04 0.04
0.33 0.24 0.13 0.10 0.07 0.05 0.02 0.01 0.02 0.02 0.02 0.02 0.04 0.04 0.07 0.10 0.08 0.07 0.08 0.08 0.08 0.08 0.08 0.06 0.05 0.03 0.03 0.03 0.04 0.07 0.07 0.05 0.05 0.04 0.04 0.06 0.05 0.06 0.06 0.05 0.05 0.05 0.05
0.32 0.30 0.17 0.11 0.07 0.04 0.02 0.01 0.01 0.01 0.02 0.02 0.03 0.03 0.04 0.05 0.07 0.09 0.09 0.09 0.10 0.12 0.13 0.12 0.08 0.07 0.07 0.09 0.08 0.07 0.07 0.07 0.08 0.10 0.07 0.06 0.05 0.05 0.06 0.06 0.06 0.06 0.06
0.51 0.48 0.24 0.11 0.05 0.03 0.02 0.01 0.01 0.02 0.04 0.05 0.06 0.05 0.04 0.08 0.11 0.12 0.13 0.14 0.10 0.11 0.16 0.21 0.18 0.14 0.11 0.13 0.10 0.10 0.13 0.11 0.10 0.11 0.09 0.09 0.09 0.08 0.08 0.08 0.09 0.10 0.09
0.73 0.67 0.32 0.11 0.04 0.03 0.02 0.02 0.03 0.04 0.06 0.08 0.11 0.10 0.07 0.10 0.15 0.16 0.18 0.18 0.15 0.15 0.16 0.16 0.18 0.17 0.17 0.19 0.15 0.14 0.13 0.10 0.07 0.08 0.09 0.08 0.09 0.10 0.10 0.10 0.09 0.10 0.10
1.06 1.04 0.45 0.13 0.06 0.05 0.06 0.08 0.09 0.10 0.09 0.11 0.14 0.15 0.12 0.15 0.21 0.26 0.28 0.28 0.27 0.25 0.27 0.27 0.26 0.24 0.24 0.23 0.20 0.19 0.17 0.13 0.11 0.11 0.12 0.11 0.11 0.11 0.12 0.11 0.09 0.09 0.10
1.61 1.35 0.59 0.27 0.16 0.13 0.15 0.16 0.21 0.23 0.24 0.25 0.27 0.29 0.29 0.30 0.33 0.39 0.43 0.45 0.46 0.47 0.43 0.38 0.39 0.40 0.39 0.34 0.27 0.23 0.19 0.16 0.16 0.14 0.12 0.12 0.11 0.11 0.10 0.10 0.10 0.09 0.09
2.02 1.54 0.86 0.59 0.47 0.36 0.31 0.32 0.36 0.41 0.49 0.51 0.45 0.42 0.41 0.43 0.49 0.61 0.65 0.67 0.64 0.63 0.61 0.60 0.57 0.46 0.36 0.30 0.22 0.18 0.15 0.12 0.12 0.11 0.10 0.08 0.07 0.07 0.07 0.06 0.06 0.06 0.08
1.02 0.92 0.81 0.75 0.67 0.61 0.63 0.67 0.78 0.90 0.92 0.80 0.72 0.69 0.71 0.78 0.88 0.95 0.92 0.88 0.78 0.74 0.70 0.60 0.50 0.40 0.32 0.25 0.23 0.18 0.12 0.08 0.06 0.05 0.05 0.05 0.05 0.04 0.03 0.02 0.02 0.02 0.03
0.69 0.83 0.82 0.74 0.75 0.84 1.02 1.18 1.40 1.52 1.43 1.30 1.23 1.19 1.21 1.21 1.17 1.09 1.04 0.93 0.82 0.71 0.60 0.51 0.45 0.39 0.35 0.28 0.22 0.18 0.13 0.09 0.05 0.03 0.02 0.02 0.02 0.02 0.01 0.01 0.01 0.01 0.01
0.65 0.84 0.89 0.91 1.04 1.24 1.44 1.74 1.98 1.92 1.79 1.79 1.73 1.69 1.58 1.44 1.31 1.20 1.08 0.97 0.85 0.72 0.63 0.54 0.45 0.38 0.31 0.24 0.18 0.15 0.13 0.09 0.05 0.03 0.02 0.02 0.01 0.01 0.01 0.01 0.00 0.00 0.00
0.80 0.94 1.04 1.16 1.39 1.67 1.87 2.05 2.13 2.10 2.06 2.07 1.87 1.71 1.52 1.32 1.22 1.12 0.98 0.86 0.76 0.64 0.53 0.40 0.30 0.24 0.19 0.15 0.11 0.10 0.09 0.07 0.07 0.05 0.02 0.01 0.00 0.00 0.00 0.00 0.00 0.00 0.00
0.77 1.02 1.19 1.32 1.59 1.82 1.98 2.10 2.19 2.26 2.20 2.03 1.69 1.40 1.17 1.05 0.97 0.82 0.66 0.54 0.47 0.38 0.28 0.19 0.15 0.12 0.09 0.08 0.07 0.07 0.07 0.06 0.05 0.06 0.04 0.01 0.01 0.00 0.00 0.00 0.00 0.00 0.00
0.60 0.85 1.02 1.17 1.54 1.87 2.03 2.05 2.07 2.06 1.88 1.60 1.31 1.07 0.92 0.81 0.72 0.59 0.47 0.36 0.27 0.20 0.13 0.09 0.08 0.07 0.07 0.07 0.06 0.04 0.05 0.05 0.05 0.06 0.06 0.03 0.02 0.01 0.00 0.00 0.00 0.01 0.01

GEFSSE_prec_meanprecacc_072.txt.gz
Total_Precipitation_Accumulation
0.01 0.01 0.01 0.01 0.01 0.01 0.00 0.02 0.05 0.09 0.11 0.13 0.15 0.15 0.15 0.13 0.12 0.12 0.11 0.10 0.11 0.14 0.18 0.23 0.25 0.27 0.29 0.28 0.19 0.12 0.09 0.08 0.06 0.05 0.04 0.05 0.06 0.07 0.10 0.09 0.06 0.06 0.03
0.01 0.01 0.02 0.01 0.02 0.01 0.01 0.02 0.04 0.07 0.10 0.11 0.11 0.11 0.11 0.11 0.11 0.12 0.12 0.13 0.14 0.17 0.17 0.19 0.22 0.25 0.25 0.21 0.15 0.09 0.06 0.05 0.05 0.07 0.10 0.15 0.20 0.18 0.18 0.15 0.11 0.10 0.03
0.01 0.00 0.01 0.02 0.03 0.03 0.02 0.03 0.04 0.07 0.11 0.13 0.13 0.10 0.09 0.09 0.09 0.09 0.11 0.13 0.19 0.22 0.20 0.18 0.18 0.18 0.18 0.13 0.09 0.05 0.03 0.04 0.06 0.12 0.26 0.38 0.42 0.33 0.30 0.26 0.24 0.15 0.05
0.02 0.00 0.00 0.01 0.03 0.04 0.04 0.04 0.05 0.08 0.12 0.17 0.17 0.16 0.13 0.10 0.09 0.11 0.12 0.13 0.18 0.20 0.18 0.14 0.12 0.11 0.09 0.06 0.04 0.02 0.02 0.04 0.08 0.15 0.34 0.41 0.42 0.36 0.30 0.29 0.35 0.32 0.23
0.02 0.01 0.01 0.01 0.02 0.05 0.06 0.07 0.07 0.10 0.15 0.19 0.23 0.23 0.18 0.11 0.09 0.12 0.15 0.15 0.16 0.19 0.20 0.16 0.11 0.07 0.04 0.03 0.03 0.02 0.02 0.04 0.10 0.23 0.47 0.62 0.59 0.51 0.37 0.30 0.34 0.39 0.39
0.01 0.00 0.01 0.01 0.02 0.05 0.08 0.09 0.11 0.14 0.18 0.23 0.28 0.26 0.18 0.12 0.10 0.13 0.17 0.19 0.20 0.23 0.27 0.23 0.20 0.13 0.08 0.05 0.03 0.03 0.04 0.08 0.14 0.37 0.57 0.71 0.63 0.54 0.37 0.28 0.27 0.37 0.40
0.02 0.01 0.00 0.02 0.03 0.06 0.08 0.09 0.11 0.15 0.19 0.24 0.28 0.24 0.17 0.12 0.09 0.12 0.18 0.21 0.24 0.26 0.25 0.22 0.20 0.14 0.12 0.10 0.09 0.10 0.12 0.17 0.23 0.43 0.58 0.55 0.55 0.43 0.31 0.26 0.21 0.20 0.24
0.02 0.01 0.01 0.02 0.03 0.10 0.16 0.11 0.09 0.12 0.16 0.22 0.26 0.22 0.15 0.12 0.13 0.17 0.18 0.22 0.24 0.21 0.17 0.17 0.16 0.13 0.15 0.17 0.17 0.19 0.21 0.23 0.23 0.34 0.43 0.41 0.33 0.24 0.25 0.25 0.18 0.13 0.12
0.08 0.05 0.02 0.02 0.02 0.05 0.07 0.06 0.06 0.08 0.11 0.17 0.21 0.24 0.19 0.15 0.22 0.25 0.23 0.24 0.27 0.22 0.17 0.17 0.18 0.15 0.19 0.24 0.19 0.16 0.16 0.14 0.12 0.16 0.25 0.30 0.21 0.16 0.16 0.15 0.13 0.10 0.08
0.30 0.38 0.17 0.09 0.04 0.02 0.02 0.02 0.02 0.02 0.04 0.07 0.10 0.13 0.14 0.16 0.20 0.21 0.19 0.18 0.20 0.15 0.11 0.10 0.12 0.12 0.10 0.09 0.05 0.03 0.04 0.03 0.04 0.07 0.14 0.16 0.16 0.15 0.13 0.10 0.08 0.08 0.08
0.54 0.71 0.49 0.18 0.04 0.01 0.02 0.01 0.01 0.01 0.01 0.02 0.03 0.05 0.09 0.19 0.23 0.21 0.13 0.10 0.07 0.04 0.03 0.02 0.02 0.02 0.01 0.01 0.01 0.01 0.01 0.01 0.03 0.05 0.12 0.16 0.16 0.16 0.13 0.09 0.06 0.05 0.05
0.64 0.61 0.47 0.11 0.03 0.01 0.01 0.01 0.02 0.02 0.01 0.03 0.05 0.05 0.12 0.21 0.24 0.17 0.11 0.05 0.03 0.01 0.01 0.01 0.01 0.01 0.00 0.00 0.00 0.01 0.01 0.02 0.03 0.04 0.05 0.09 0.12 0.13 0.12 0.08 0.06 0.06 0.05
0.57 0.32 0.16 0.10 0.06 0.03 0.01 0.02 0.02 0.02 0.03 0.03 0.05 0.06 0.12 0.11 0.08 0.05 0.05 0.05 0.03 0.02 0.03 0.03 0.02 0.01 0.01 0.01 0.01 0.02 0.02 0.02 0.03 0.03 0.04 0.08 0.10 0.11 0.11 0.08 0.07 0.07 0.07
0.33 0.24 0.13 0.10 0.07 0.05 0.02 0.01 0.02 0.02 0.02 0.02 0.04 0.04 0.07 0.10 0.08 0.07 0.08 0.08 0.09 0.09 0.08 0.06 0.05 0.04 0.03 0.03 0.04 0.08 0.08 0.05 0.05 0.04 0.05 0.07 0.08 0.09 0.11 0.11 0.10 0.10 0.10
0.33 0.31 0.17 0.11 0.07 0.04 0.02 0.01 0.01 0.01 0.02 0.02 0.03 0.03 0.04 0.05 0.07 0.09 0.10 0.10 0.10 0.12 0.14 0.12 0.08 0.08 0.07 0.09 0.09 0.08 0.08 0.08 0.09 0.11 0.08 0.08 0.07 0.09 0.12 0.12 0.12 0.13 0.13
0.52 0.49 0.24 0.11 0.05 0.03 0.02 0.01 0.01 0.02 0.04 0.05 0.06 0.05 0.04 0.08 0.12 0.13 0.14 0.15 0.11 0.12 0.17 0.22 0.19 0.15 0.12 0.14 0.11 0.11 0.15 0.14 0.12 0.13 0.12 0.11 0.12 0.11 0.13 0.14 0.15 0.15 0.15
0.74 0.68 0.32 0.12 0.05 0.04 0.03 0.03 0.04 0.05 0.07 0.09 0.12 0.11 0.08 0.11 0.16 0.18 0.20 0.20 0.17 0.17 0.18 0.19 0.20 0.18 0.18 0.20 0.17 0.16 0.15 0.12 0.08 0.09 0.11 0.10 0.12 0.13 0.15 0.16 0.14 0.14 0.15
1.07 1.06 0.46 0.14 0.07 0.07 0.10 0.11 0.11 0.12 0.12 0.13 0.17 0.17 0.13 0.16 0.25 0.30 0.32 0.31 0.30 0.28 0.30 0.31 0.30 0.28 0.27 0.26 0.24 0.22 0.19 0.15 0.12 0.13 0.15 0.14 0.13 0.14 0.15 0.15 0.13 0.13 0.13
1.63 1.36 0.60 0.28 0.21 0.20 0.22 0.26 0.30 0.29 0.28 0.29 0.31 0.31 0.32 0.34 0.36 0.43 0.48 0.50 0.50 0.53 0.50 0.45 0.47 0.48 0.46 0.40 0.30 0.25 0.21 0.18 0.18 0.17 0.15 0.16 0.14 0.14 0.12 0.13 0.13 0.13 0.12
2.03 1.55 0.89 0.65 0.57 0.51 0.47 0.50 0.52 0.56 0.60 0.60 0.55 0.51 0.48 0.49 0.55 0.69 0.75 0.77 0.75 0.73 0.71 0.71 0.67 0.53 0.40 0.34 0.25 0.20 0.17 0.14 0.14 0.13 0.12 0.10 0.09 0.09 0.08 0.08 0.07 0.08 0.10
1.03 0.94 0.83 0.81 0.75 0.71 0.74 0.80 0.93 1.07 1.09 0.99 0.93 0.90 0.91 0.98 1.07 1.15 1.14 1.09 0.98 0.92 0.88 0.76 0.61 0.49 0.37 0.30 0.28 0.22 0.15 0.11 0.08 0.07 0.06 0.06 0.06 0.04 0.04 0.03 0.03 0.03 0.04
0.71 0.86 0.86 0.81 0.86 0.98 1.21 1.42 1.69 1.84 1.77 1.64 1.54 1.49 1.52 1.51 1.45 1.40 1.35 1.22 1.08 0.93 0.79 0.66 0.58 0.51 0.45 0.37 0.29 0.23 0.16 0.11 0.07 0.04 0.03 0.03 0.03 0.02 0.02 0.01 0.01 0.01 0.01
0.70 0.89 0.96 1.01 1.20 1.44 1.74 2.14 2.45 2.45 2.31 2.25 2.11 2.05 1.93 1.78 1.65 1.55 1.40 1.28 1.12 0.96 0.83 0.70 0.60 0.51 0.42 0.31 0.23 0.19 0.15 0.11 0.06 0.04 0.03 0.02 0.02 0.01 0.01 0.01 0.01 0.01 0.00
0.89 1.05 1.17 1.33 1.63 1.99 2.27 2.55 2.74 2.76 2.64 2.57 2.32 2.13 1.92 1.70 1.57 1.45 1.31 1.15 1.02 0.89 0.76 0.64 0.52 0.40 0.29 0.22 0.16 0.12 0.10 0.08 0.08 0.05 0.02 0.01 0.01 0.01 0.01 0.01 0.00 0.00 0.00
0.89 1.18 1.37 1.52 1.88 2.24 2.45 2.57 2.70 2.83 2.80 2.58 2.18 1.85 1.60 1.41 1.29 1.13 0.96 0.82 0.75 0.67 0.56 0.44 0.33 0.22 0.16 0.11 0.09 0.09 0.08 0.07 0.06 0.07 0.05 0.02 0.01 0.01 0.00 0.00 0.00 0.00 0.01
0.71 0.99 1.19 1.38 1.84 2.27 2.47 2.54 2.60 2.59 2.38 2.02 1.67 1.40 1.23 1.13 1.03 0.89 0.77 0.63 0.50 0.38 0.27 0.20 0.15 0.12 0.09 0.08 0.07 0.05 0.05 0.06 0.05 0.06 0.06 0.03 0.02 0.01 0.00 0.00 0.00 0.01 0.01

GEFSSE_prec_meanprecacc_078.txt.gz
Total_Precipitation_Accumulation
0.01 0.01 0.02 0.01 0.02 0.01 0.01 0.02 0.06 0.09 0.11 0.13 0.15 0.15 0.15 0.13 0.12 0.12 0.11 0.10 0.11 0.14 0.19 0.24 0.25 0.27 0.30 0.29 0.20 0.12 0.09 0.08 0.06 0.05 0.04 0.05 0.07 0.08 0.11 0.09 0.07 0.07 0.03
0.01 0.01 0.02 0.01 0.02 0.02 0.01 0.02 0.05 0.08 0.10 0.11 0.11 0.11 0.12 0.12 0.11 0.12 0.12 0.13 0.15 0.18 0.18 0.19 0.22 0.25 0.25 0.21 0.15 0.09 0.06 0.05 0.05 0.08 0.11 0.16 0.21 0.19 0.19 0.16 0.12 0.11 0.03
0.01 0.00 0.01 0.02 0.03 0.03 0.03 0.03 0.04 0.07 0.11 0.13 0.13 0.11 0.09 0.09 0.09 0.10 0.11 0.14 0.19 0.22 0.21 0.19 0.18 0.18 0.18 0.14 0.09 0.05 0.04 0.04 0.08 0.13 0.28 0.40 0.43 0.34 0.31 0.27 0.25 0.16 0.06
0.02 0.00 0.01 0.01 0.03 0.05 0.04 0.05 0.05 0.08 0.12 0.17 0.18 0.16 0.13 0.10 0.10 0.11 0.12 0.13 0.19 0.21 0.18 0.15 0.12 0.11 0.09 0.06 0.04 0.03 0.03 0.04 0.09 0.16 0.36 0.42 0.43 0.38 0.31 0.31 0.37 0.33 0.24
0.02 0.01 0.01 0.01 0.02 0.05 0.06 0.07 0.08 0.10 0.15 0.19 0.23 0.23 0.18 0.11 0.09 0.13 0.15 0.15 0.17 0.20 0.21 0.16 0.11 0.07 0.04 0.04 0.03 0.02 0.03 0.05 0.10 0.24 0.47 0.62 0.60 0.52 0.38 0.33 0.36 0.40 0.40
0.01 0.00 0.01 0.01 0.02 0.05 0.08 0.09 0.11 0.14 0.18 0.23 0.28 0.26 0.19 0.12 0.11 0.14 0.18 0.21 0.21 0.24 0.28 0.23 0.20 0.13 0.08 0.05 0.03 0.03 0.05 0.09 0.15 0.37 0.57 0.71 0.64 0.56 0.39 0.31 0.29 0.40 0.42
0.02 0.01 0.00 0.02 0.03 0.07 0.09 0.09 0.11 0.15 0.19 0.25 0.28 0.24 0.17 0.12 0.11 0.13 0.20 0.23 0.26 0.28 0.26 0.22 0.20 0.14 0.12 0.11 0.09 0.11 0.14 0.18 0.24 0.43 0.58 0.56 0.55 0.45 0.34 0.29 0.24 0.23 0.28
0.02 0.01 0.01 0.02 0.03 0.10 0.16 0.11 0.09 0.12 0.16 0.22 0.26 0.23 0.16 0.13 0.15 0.18 0.20 0.23 0.26 0.23 0.18 0.17 0.16 0.13 0.15 0.17 0.18 0.20 0.22 0.24 0.24 0.34 0.44 0.42 0.34 0.26 0.28 0.30 0.23 0.17 0.16
0.08 0.05 0.02 0.02 0.02 0.06 0.08 0.07 0.07 0.08 0.12 0.17 0.22 0.25 0.20 0.16 0.23 0.27 0.25 0.25 0.28 0.23 0.17 0.17 0.18 0.15 0.19 0.24 0.19 0.17 0.17 0.15 0.13 0.16 0.25 0.32 0.23 0.18 0.20 0.20 0.17 0.14 0.13
0.30 0.38 0.17 0.09 0.04 0.03 0.02 0.03 0.04 0.04 0.05 0.08 0.11 0.14 0.15 0.16 0.20 0.22 0.20 0.19 0.20 0.15 0.11 0.11 0.12 0.12 0.10 0.09 0.06 0.04 0.04 0.04 0.04 0.08 0.15 0.17 0.18 0.18 0.15 0.13 0.11 0.11 0.11
0.54 0.72 0.49 0.19 0.04 0.02 0.03 0.01 0.02 0.02 0.02 0.03 0.03 0.05 0.10 0.19 0.23 0.22 0.13 0.11 0.08 0.05 0.03 0.02 0.02 0.02 0.01 0.01 0.01 0.01 0.02 0.02 0.03 0.05 0.13 0.17 0.18 0.18 0.16 0.13 0.10 0.09 0.09
0.64 0.61 0.47 0.12 0.03 0.02 0.02 0.02 0.03 0.03 0.02 0.03 0.06 0.05 0.12 0.22 0.25 0.18 0.11 0.06 0.03 0.02 0.01 0.01 0.01 0.01 0.01 0.00 0.01 0.01 0.01 0.02 0.03 0.04 0.06 0.10 0.14 0.17 0.16 0.12 0.10 0.09 0.09
0.57 0.32 0.16 0.11 0.07 0.04 0.02 0.03 0.04 0.04 0.05 0.04 0.06 0.07 0.14 0.13 0.08 0.05 0.06 0.05 0.04 0.03 0.03 0.04 0.02 0.01 0.01 0.01 0.01 0.02 0.02 0.02 0.03 0.03 0.04 0.09 0.13 0.17 0.16 0.12 0.10 0.10 0.10
0.33 0.24 0.13 0.10 0.07 0.05 0.03 0.02 0.03 0.04 0.03 0.03 0.05 0.05 0.08 0.11 0.08 0.08 0.08 0.09 0.10 0.10 0.09 0.06 0.05 0.04 0.03 0.03 0.04 0.08 0.08 0.05 0.05 0.04 0.06 0.09 0.11 0.14 0.16 0.15 0.13 0.13 0.13
0.33 0.31 0.17 0.11 0.07 0.05 0.03 0.02 0.01 0.02 0.02 0.03 0.04 0.03 0.04 0.06 0.08 0.10 0.10 0.11 0.12 0.14 0.15 0.12 0.08 0.08 0.08 0.09 0.09 0.08 0.08 0.09 0.10 0.11 0.10 0.10 0.09 0.12 0.16 0.17 0.17 0.17 0.17
0.52 0.49 0.25 0.11 0.05 0.04 0.02 0.02 0.02 0.03 0.05 0.05 0.06 0.06 0.05 0.09 0.13 0.15 0.16 0.16 0.13 0.14 0.20 0.25 0.21 0.17 0.13 0.15 0.12 0.12 0.16 0.15 0.14 0.14 0.14 0.15 0.14 0.13 0.16 0.19 0.21 0.20 0.20
0.74 0.69 0.34 0.12 0.05 0.04 0.04 0.03 0.04 0.05 0.07 0.10 0.12 0.12 0.09 0.12 0.18 0.20 0.23 0.23 0.20 0.20 0.22 0.23 0.24 0.22 0.22 0.24 0.21 0.19 0.18 0.13 0.10 0.11 0.14 0.14 0.16 0.17 0.18 0.20 0.20 0.20 0.20
1.09 1.08 0.48 0.16 0.08 0.08 0.10 0.11 0.12 0.12 0.12 0.14 0.18 0.19 0.14 0.18 0.27 0.33 0.35 0.35 0.34 0.33 0.37 0.37 0.36 0.34 0.34 0.33 0.30 0.27 0.22 0.17 0.14 0.16 0.19 0.20 0.19 0.20 0.21 0.19 0.17 0.17 0.17
1.64 1.38 0.61 0.29 0.22 0.20 0.23 0.26 0.30 0.30 0.29 0.31 0.32 0.34 0.34 0.37 0.41 0.47 0.53 0.57 0.58 0.61 0.58 0.53 0.53 0.56 0.56 0.49 0.37 0.31 0.26 0.22 0.21 0.19 0.18 0.19 0.18 0.18 0.17 0.17 0.17 0.16 0.15
2.05 1.57 0.91 0.66 0.59 0.52 0.48 0.50 0.53 0.58 0.62 0.64 0.60 0.58 0.58 0.60 0.65 0.79 0.86 0.89 0.89 0.90 0.86 0.84 0.79 0.63 0.50 0.41 0.31 0.26 0.22 0.19 0.17 0.16 0.15 0.13 0.12 0.11 0.10 0.11 0.12 0.11 0.12
1.06 0.97 0.87 0.84 0.78 0.74 0.77 0.84 0.97 1.11 1.15 1.07 1.03 1.02 1.05 1.13 1.23 1.36 1.35 1.30 1.21 1.18 1.13 0.98 0.79 0.62 0.48 0.39 0.36 0.31 0.23 0.16 0.12 0.10 0.09 0.09 0.08 0.07 0.05 0.05 0.06 0.05 0.06
0.74 0.91 0.92 0.87 0.91 1.02 1.25 1.49 1.79 2.01 1.98 1.85 1.73 1.68 1.69 1.68 1.63 1.61 1.57 1.46 1.33 1.21 1.06 0.93 0.83 0.73 0.62 0.52 0.43 0.37 0.26 0.17 0.10 0.06 0.06 0.06 0.05 0.04 0.03 0.03 0.02 0.02 0.02
0.75 0.95 1.02 1.08 1.31 1.57 1.87 2.30 2.68 2.74 2.67 2.62 2.43 2.33 2.17 1.99 1.86 1.78 1.64 1.53 1.39 1.24 1.12 0.99 0.86 0.76 0.66 0.54 0.43 0.35 0.27 0.20 0.12 0.06 0.04 0.03 0.02 0.02 0.02 0.01 0.01 0.01 0.01
0.93 1.10 1.23 1.41 1.77 2.18 2.49 2.83 3.06 3.13 3.07 3.00 2.73 2.50 2.20 1.93 1.79 1.67 1.54 1.38 1.27 1.13 0.99 0.87 0.79 0.69 0.59 0.48 0.35 0.27 0.20 0.15 0.13 0.09 0.03 0.02 0.01 0.01 0.01 0.01 0.01 0.01 0.01
0.92 1.21 1.43 1.59 1.99 2.41 2.70 2.89 3.08 3.22 3.18 2.97 2.57 2.17 1.88 1.68 1.52 1.35 1.18 1.04 0.96 0.87 0.75 0.61 0.52 0.44 0.37 0.30 0.24 0.20 0.16 0.12 0.11 0.11 0.08 0.03 0.02 0.01 0.01 0.01 0.01 0.01 0.01
0.75 1.04 1.25 1.44 1.94 2.41 2.69 2.84 3.00 3.04 2.84 2.44 2.02 1.70 1.51 1.38 1.26 1.11 0.98 0.81 0.68 0.55 0.41 0.32 0.26 0.21 0.18 0.15 0.13 0.10 0.09 0.09 0.09 0.09 0.08 0.05 0.03 0.01 0.01 0.01 0.01 0.01 0.02

GEFSSE_prec_meanprecacc_084.txt.gz
Total_Precipitation_Accumulation
0.01 0.01 0.02 0.01 0.02 0.01 0.01 0.02 0.06 0.09 0.11 0.13 0.15 0.15 0.15 0.13 0.12 0.12 0.11 0.11 0.11 0.14 0.19 0.24 0.26 0.28 0.30 0.29 0.20 0.12 0.09 0.08 0.06 0.05 0.04 0.05 0.07 0.08 0.12 0.10 0.09 0.07 0.03
0.01 0.01 0.02 0.01 0.02 0.02 0.01 0.02 0.05 0.08 0.10 0.11 0.11 0.11 0.12 0.12 0.12 0.12 0.12 0.13 0.15 0.18 0.18 0.19 0.23 0.26 0.25 0.21 0.15 0.09 0.06 0.05 0.05 0.08 0.11 0.17 0.21 0.19 0.20 0.18 0.16 0.13 0.04
0.01 0.00 0.01 0.02 0.03 0.03 0.03 0.03 0.04 0.08 0.11 0.13 0.13 0.11 0.09 0.09 0.09 0.10 0.11 0.14 0.19 0.23 0.21 0.19 0.18 0.19 0.18 0.14 0.09 0.05 0.04 0.04 0.08 0.13 0.30 0.43 0.44 0.35 0.32 0.28 0.27 0.17 0.07
0.02 0.00 0.01 0.01 0.03 0.05 0.04 0.05 0.05 0.08 0.12 0.17 0.18 0.16 0.13 0.10 0.10 0.11 0.12 0.14 0.19 0.22 0.19 0.15 0.12 0.11 0.09 0.06 0.04 0.03 0.03 0.05 0.10 0.19 0.45 0.47 0.44 0.38 0.31 0.31 0.37 0.34 0.25
0.02 0.01 0.01 0.01 0.02 0.05 0.06 0.07 0.08 0.11 0.15 0.20 0.23 0.24 0.18 0.12 0.10 0.13 0.16 0.16 0.17 0.20 0.21 0.17 0.11 0.07 0.04 0.04 0.03 0.02 0.03 0.06 0.12 0.29 0.55 0.67 0.62 0.52 0.39 0.33 0.37 0.41 0.41
0.01 0.00 0.01 0.01 0.02 0.06 0.08 0.10 0.12 0.14 0.18 0.24 0.28 0.27 0.20 0.13 0.12 0.15 0.19 0.21 0.22 0.24 0.28 0.23 0.21 0.13 0.08 0.05 0.03 0.03 0.06 0.10 0.17 0.41 0.61 0.75 0.65 0.56 0.40 0.31 0.30 0.41 0.44
0.02 0.01 0.00 0.02 0.03 0.07 0.09 0.10 0.12 0.16 0.20 0.26 0.30 0.26 0.19 0.14 0.12 0.14 0.21 0.23 0.26 0.28 0.26 0.22 0.20 0.15 0.12 0.11 0.10 0.11 0.14 0.19 0.28 0.46 0.63 0.58 0.57 0.45 0.34 0.30 0.25 0.24 0.29
0.02 0.01 0.01 0.02 0.03 0.11 0.17 0.12 0.11 0.14 0.18 0.24 0.29 0.25 0.18 0.14 0.16 0.20 0.21 0.24 0.26 0.23 0.18 0.17 0.16 0.14 0.15 0.18 0.19 0.20 0.23 0.25 0.26 0.36 0.47 0.45 0.36 0.26 0.29 0.30 0.24 0.19 0.17
0.08 0.05 0.02 0.02 0.02 0.06 0.09 0.08 0.09 0.11 0.14 0.20 0.24 0.28 0.22 0.17 0.24 0.28 0.26 0.26 0.29 0.23 0.18 0.17 0.18 0.15 0.19 0.24 0.19 0.17 0.17 0.15 0.14 0.17 0.28 0.37 0.24 0.19 0.20 0.20 0.17 0.16 0.14
0.31 0.39 0.17 0.09 0.04 0.03 0.02 0.04 0.06 0.07 0.09 0.12 0.13 0.16 0.16 0.17 0.21 0.23 0.20 0.19 0.21 0.16 0.11 0.11 0.12 0.12 0.10 0.09 0.06 0.04 0.04 0.04 0.05 0.09 0.18 0.22 0.21 0.19 0.16 0.13 0.11 0.12 0.12
0.54 0.72 0.50 0.19 0.05 0.03 0.03 0.02 0.03 0.03 0.05 0.05 0.04 0.06 0.11 0.20 0.25 0.23 0.14 0.11 0.08 0.05 0.03 0.02 0.02 0.02 0.01 0.01 0.01 0.02 0.02 0.02 0.05 0.09 0.18 0.25 0.21 0.19 0.17 0.13 0.10 0.09 0.09
0.64 0.61 0.47 0.12 0.04 0.03 0.03 0.03 0.04 0.04 0.03 0.04 0.07 0.06 0.14 0.30 0.34 0.23 0.17 0.07 0.03 0.02 0.02 0.01 0.01 0.01 0.01 0.01 0.02 0.02 0.01 0.02 0.05 0.08 0.14 0.19 0.19 0.19 0.18 0.13 0.10 0.10 0.09
0.58 0.33 0.17 0.12 0.08 0.05 0.05 0.06 0.07 0.08 0.08 0.08 0.12 0.11 0.20 0.21 0.13 0.09 0.11 0.08 0.05 0.04 0.05 0.06 0.03 0.02 0.02 0.01 0.02 0.02 0.02 0.03 0.04 0.04 0.08 0.13 0.15 0.18 0.18 0.14 0.11 0.11 0.12
0.34 0.24 0.14 0.11 0.08 0.06 0.05 0.06 0.07 0.08 0.08 0.09 0.12 0.10 0.16 0.18 0.13 0.12 0.14 0.14 0.15 0.14 0.14 0.10 0.07 0.05 0.04 0.03 0.04 0.08 0.08 0.06 0.06 0.06 0.10 0.11 0.12 0.16 0.19 0.18 0.16 0.16 0.15
0.35 0.31 0.17 0.12 0.08 0.06 0.06 0.05 0.04 0.06 0.07 0.10 0.12 0.10 0.10 0.11 0.12 0.15 0.15 0.16 0.16 0.18 0.19 0.15 0.10 0.10 0.09 0.10 0.09 0.09 0.09 0.10 0.12 0.15 0.13 0.12 0.11 0.14 0.19 0.20 0.21 0.21 0.21
0.58 0.49 0.25 0.11 0.05 0.04 0.04 0.04 0.05 0.06 0.10 0.14 0.14 0.12 0.09 0.14 0.20 0.20 0.21 0.22 0.17 0.18 0.24 0.28 0.25 0.21 0.16 0.17 0.13 0.13 0.17 0.16 0.16 0.18 0.20 0.21 0.18 0.16 0.19 0.23 0.26 0.26 0.25
0.79 0.71 0.34 0.13 0.06 0.06 0.06 0.06 0.08 0.09 0.11 0.16 0.20 0.18 0.13 0.16 0.25 0.27 0.30 0.29 0.25 0.24 0.27 0.28 0.29 0.28 0.27 0.28 0.26 0.24 0.21 0.16 0.14 0.15 0.20 0.23 0.24 0.22 0.21 0.24 0.24 0.25 0.26
1.11 1.09 0.49 0.17 0.09 0.10 0.13 0.15 0.15 0.15 0.17 0.18 0.22 0.23 0.18 0.22 0.32 0.39 0.41 0.41 0.40 0.39 0.46 0.48 0.47 0.47 0.46 0.43 0.41 0.34 0.29 0.24 0.20 0.21 0.25 0.27 0.30 0.32 0.32 0.26 0.22 0.22 0.22
1.66 1.38 0.62 0.31 0.25 0.23 0.27 0.30 0.35 0.34 0.33 0.34 0.37 0.38 0.39 0.41 0.45 0.53 0.61 0.67 0.67 0.72 0.71 0.64 0.68 0.73 0.72 0.64 0.50 0.42 0.36 0.32 0.30 0.28 0.27 0.29 0.32 0.33 0.31 0.26 0.23 0.21 0.19
2.08 1.59 0.93 0.69 0.63 0.56 0.53 0.57 0.60 0.64 0.67 0.68 0.65 0.63 0.63 0.65 0.70 0.87 0.96 1.00 1.01 1.04 1.02 1.02 0.97 0.79 0.66 0.57 0.43 0.38 0.34 0.29 0.26 0.24 0.21 0.19 0.18 0.20 0.23 0.23 0.20 0.18 0.17
1.10 1.02 0.93 0.90 0.83 0.78 0.82 0.89 1.02 1.17 1.22 1.15 1.11 1.09 1.12 1.20 1.31 1.44 1.45 1.42 1.34 1.33 1.30 1.16 0.98 0.80 0.66 0.56 0.52 0.47 0.37 0.26 0.21 0.19 0.18 0.19 0.18 0.16 0.15 0.15 0.15 0.13 0.12
0.84 1.01 1.02 0.96 0.98 1.07 1.31 1.56 1.87 2.09 2.07 1.97 1.85 1.79 1.79 1.76 1.70 1.68 1.66 1.57 1.46 1.37 1.25 1.13 1.02 0.93 0.82 0.71 0.62 0.57 0.44 0.32 0.20 0.14 0.13 0.13 0.12 0.10 0.09 0.08 0.08 0.08 0.08
0.96 1.15 1.21 1.24 1.43 1.68 1.97 2.39 2.78 2.84 2.78 2.75 2.56 2.46 2.29 2.08 1.94 1.86 1.73 1.64 1.51 1.36 1.25 1.14 1.03 0.96 0.84 0.71 0.60 0.55 0.47 0.40 0.29 0.18 0.13 0.11 0.10 0.08 0.06 0.05 0.06 0.07 0.09
1.08 1.30 1.45 1.63 1.96 2.33 2.63 2.95 3.20 3.27 3.22 3.15 2.88 2.63 2.32 2.05 1.89 1.76 1.63 1.50 1.38 1.25 1.13 1.01 0.93 0.83 0.73 0.63 0.52 0.44 0.38 0.32 0.30 0.24 0.14 0.10 0.08 0.07 0.07 0.05 0.04 0.04 0.06
1.01 1.33 1.58 1.77 2.18 2.60 2.90 3.08 3.28 3.41 3.37 3.16 2.73 2.30 2.01 1.81 1.64 1.47 1.28 1.15 1.08 1.00 0.88 0.74 0.64 0.55 0.48 0.41 0.36 0.32 0.29 0.26 0.24 0.25 0.20 0.12 0.08 0.07 0.06 0.06 0.05 0.04 0.04
0.83 1.11 1.35 1.58 2.09 2.59 2.93 3.11 3.25 3.29 3.06 2.66 2.24 1.88 1.66 1.51 1.38 1.22 1.08 0.93 0.80 0.67 0.54 0.43 0.36 0.31 0.28 0.26 0.23 0.21 0.19 0.19 0.18 0.20 0.20 0.14 0.11 0.07 0.04 0.03 0.03 0.02 0.03